Observation data for Fritch on 12/08/2018      Previous  Date  Next       Current Mesonet Observations  Soil Data  Daily Summary Page  Observations in Plain Language
KFR1 080600Z 05007KT M01/M05 A3033 RMK A01 T10071054  RH  071%=      5-min Rain = 0
KFR1 080601Z 06006KT M01/M05 A3033 RMK A01 T10071053  RH  071%=      5-min Rain = 0
KFR1 080602Z 06007KT M01/M05 A3033 RMK A01 T10061053  RH  071%=      5-min Rain = 0
KFR1 080603Z 06007KT M01/M05 A3033 RMK A01 T10071053  RH  071%=      5-min Rain = 0
KFR1 080604Z 06006KT M01/M05 A3033 RMK A01 T10071053  RH  071%=      5-min Rain = 0
KFR1 080605Z 06007KT M01/M05 A3033 RMK A01 T10061053  RH  071%=      5-min Rain = 0
KFR1 080606Z 06006KT M01/M05 A3033 RMK A01 T10071054  RH  071%=      5-min Rain = 0
KFR1 080607Z 07005KT M01/M05 A3034 RMK A01 T10061053  RH  071%=      5-min Rain = 0
KFR1 080608Z 07006KT M01/M05 A3034 RMK A01 T10071053  RH  071%=      5-min Rain = 0
KFR1 080609Z 06006KT M01/M05 A3033 RMK A01 T10071053  RH  071%=      5-min Rain = 0
KFR1 080610Z 07005KT M01/M05 A3033 RMK A01 T10071054  RH  071%=      5-min Rain = 0
KFR1 080611Z 07005KT M01/M05 A3033 RMK A01 T10071053  RH  071%=      5-min Rain = 0
KFR1 080612Z 06006KT M01/M05 A3033 RMK A01 T10071054  RH  071%=      5-min Rain = 0
KFR1 080613Z 07006KT M01/M05 A3033 RMK A01 T10071054  RH  071%=      5-min Rain = 0
KFR1 080614Z 05006KT M01/M05 A3033 RMK A01 T10071054  RH  071%=      5-min Rain = 0
KFR1 080615Z 05004KT M01/M05 A3033 RMK A01 T10081054  RH  071%=      5-min Rain = 0
KFR1 080616Z 05004KT M01/M05 A3034 RMK A01 T10071054  RH  071%=      5-min Rain = 0
KFR1 080617Z 06005KT M01/M05 A3034 RMK A01 T10081054  RH  071%=      5-min Rain = 0
KFR1 080618Z 06004KT M01/M05 A3034 RMK A01 T10081054  RH  071%=      5-min Rain = 0
KFR1 080619Z 06003KT M01/M05 A3033 RMK A01 T10071054  RH  071%=      5-min Rain = 0
KFR1 080620Z 06005KT M01/M05 A3033 RMK A01 T10081054  RH  071%=      5-min Rain = 0
KFR1 080621Z 05006KT M01/M05 A3033 RMK A01 T10081054  RH  071%=      5-min Rain = 0
KFR1 080622Z 05006KT M01/M06 A3033 RMK A01 T10081055  RH  071%=      5-min Rain = 0
KFR1 080623Z 06005KT M01/M05 A3033 RMK A01 T10081054  RH  071%=      5-min Rain = 0
KFR1 080624Z 06005KT M01/M06 A3033 RMK A01 T10081055  RH  071%=      5-min Rain = 0
KFR1 080625Z 07005KT M01/M06 A3033 RMK A01 T10081055  RH  071%=      5-min Rain = 0
KFR1 080626Z 05004KT M01/M06 A3033 RMK A01 T10091055  RH  071%=      5-min Rain = 0
KFR1 080627Z 07006KT M01/M06 A3033 RMK A01 T10091055  RH  071%=      5-min Rain = 0
KFR1 080628Z 04003KT M01/M06 A3033 RMK A01 T10091055  RH  071%=      5-min Rain = 0
KFR1 080629Z 05004KT M01/M06 A3033 RMK A01 T10091055  RH  071%=      5-min Rain = 0
KFR1 080630Z 05005KT M01/M06 A3033 RMK A01 T10091055  RH  071%=      5-min Rain = 0
KFR1 080631Z 05004KT M01/M06 A3033 RMK A01 T10091055  RH  071%=      5-min Rain = 0
KFR1 080632Z 05005KT M01/M06 A3033 RMK A01 T10091055  RH  071%=      5-min Rain = 0
KFR1 080633Z 06005KT M01/M06 A3033 RMK A01 T10091056  RH  071%=      5-min Rain = 0
KFR1 080634Z 05005KT M01/M06 A3033 RMK A01 T10101057  RH  070%=      5-min Rain = 0
KFR1 080635Z 04004KT M01/M06 A3033 RMK A01 T10101057  RH  070%=      5-min Rain = 0
KFR1 080636Z 04004KT M01/M06 A3033 RMK A01 T10101056  RH  071%=      5-min Rain = 0
KFR1 080637Z 04004KT M01/M06 A3033 RMK A01 T10101056  RH  071%=      5-min Rain = 0
KFR1 080638Z 04005KT M01/M06 A3033 RMK A01 T10101056  RH  071%=      5-min Rain = 0
KFR1 080639Z 04005KT M01/M06 A3033 RMK A01 T10101056  RH  071%=      5-min Rain = 0
KFR1 080640Z 05004KT M01/M06 A3033 RMK A01 T10101056  RH  071%=      5-min Rain = 0
KFR1 080641Z 05003KT M01/M06 A3033 RMK A01 T10101056  RH  071%=      5-min Rain = 0
KFR1 080642Z 05004KT M01/M06 A3033 RMK A01 T10101056  RH  071%=      5-min Rain = 0
KFR1 080643Z 06005KT M01/M06 A3033 RMK A01 T10101056  RH  071%=      5-min Rain = 0
KFR1 080644Z 06004KT M01/M06 A3033 RMK A01 T10101057  RH  071%=      5-min Rain = 0
KFR1 080645Z 06004KT M01/M06 A3033 RMK A01 T10101057  RH  070%=      5-min Rain = 0
KFR1 080646Z 06003KT M01/M06 A3033 RMK A01 T10111058  RH  070%=      5-min Rain = 0
KFR1 080647Z 07004KT M01/M06 A3033 RMK A01 T10111058  RH  070%=      5-min Rain = 0
KFR1 080648Z 06004KT M01/M06 A3033 RMK A01 T10111058  RH  070%=      5-min Rain = 0
KFR1 080649Z 05004KT M01/M06 A3033 RMK A01 T10101058  RH  070%=      5-min Rain = 0
KFR1 080650Z 06004KT M01/M06 A3033 RMK A01 T10111058  RH  070%=      5-min Rain = 0
KFR1 080651Z 06003KT M01/M06 A3033 RMK A01 T10101058  RH  070%=      5-min Rain = 0
KFR1 080652Z 04003KT M01/M06 A3033 RMK A01 T10101058  RH  070%=      5-min Rain = 0
KFR1 080653Z 04003KT M01/M06 A3033 RMK A01 T10111057  RH  070%=      5-min Rain = 0
KFR1 080654Z 05003KT M01/M06 A3033 RMK A01 T10111057  RH  071%=      5-min Rain = 0
KFR1 080655Z 04004KT M01/M06 A3033 RMK A01 T10111057  RH  071%=      5-min Rain = 0
KFR1 080656Z 05003KT M01/M06 A3033 RMK A01 T10111057  RH  070%=      5-min Rain = 0
KFR1 080657Z 04003KT M01/M06 A3033 RMK A01 T10111057  RH  070%=      5-min Rain = 0
KFR1 080658Z 04003KT M01/M06 A3033 RMK A01 T10111058  RH  070%=      5-min Rain = 0
KFR1 080659Z 04003KT M01/M06 A3033 RMK A01 T10111058  RH  070%=      5-min Rain = 0
KFR1 080700Z 04002KT M01/M06 A3033 RMK A01 T10111057  RH  071%=      5-min Rain = 0
KFR1 080701Z 04003KT M01/M06 A3033 RMK A01 T10111058  RH  070%=      5-min Rain = 0
KFR1 080702Z 03002KT M01/M06 A3033 RMK A01 T10101058  RH  070%=      5-min Rain = 0
KFR1 080703Z 04001KT M01/M06 A3033 RMK A01 T10111058  RH  070%=      5-min Rain = 0
KFR1 080704Z 05002KT M01/M06 A3034 RMK A01 T10111057  RH  071%=      5-min Rain = 0
KFR1 080705Z 05001KT M01/M06 A3034 RMK A01 T10111057  RH  071%=      5-min Rain = 0
KFR1 080706Z 03003KT M01/M06 A3033 RMK A01 T10111057  RH  071%=      5-min Rain = 0
KFR1 080707Z 04003KT M01/M06 A3033 RMK A01 T10111058  RH  070%=      5-min Rain = 0
KFR1 080708Z 04002KT M01/M06 A3033 RMK A01 T10111058  RH  070%=      5-min Rain = 0
KFR1 080709Z 03002KT M01/M06 A3033 RMK A01 T10111058  RH  070%=      5-min Rain = 0
KFR1 080710Z 04002KT M01/M06 A3033 RMK A01 T10111058  RH  070%=      5-min Rain = 0
KFR1 080711Z 04003KT M01/M06 A3033 RMK A01 T10111058  RH  070%=      5-min Rain = 0
KFR1 080712Z 04004KT M01/M06 A3033 RMK A01 T10101057  RH  070%=      5-min Rain = 0
KFR1 080713Z 03003KT M01/M06 A3033 RMK A01 T10111058  RH  070%=      5-min Rain = 0
KFR1 080714Z 03003KT M01/M06 A3033 RMK A01 T10101058  RH  070%=      5-min Rain = 0
KFR1 080715Z 03002KT M01/M06 A3033 RMK A01 T10101058  RH  070%=      5-min Rain = 0
KFR1 080716Z 04002KT M01/M06 A3033 RMK A01 T10111059  RH  070%=      5-min Rain = 0
KFR1 080717Z 04002KT M01/M06 A3033 RMK A01 T10111058  RH  070%=      5-min Rain = 0
KFR1 080718Z 04002KT M01/M06 A3033 RMK A01 T10111058  RH  070%=      5-min Rain = 0
KFR1 080719Z 04002KT M01/M06 A3033 RMK A01 T10101057  RH  071%=      5-min Rain = 0
KFR1 080720Z 03002KT M01/M06 A3033 RMK A01 T10111057  RH  071%=      5-min Rain = 0
KFR1 080721Z 04002KT M01/M06 A3033 RMK A01 T10101057  RH  070%=      5-min Rain = 0
KFR1 080722Z 05002KT M01/M06 A3033 RMK A01 T10111058  RH  070%=      5-min Rain = 0
KFR1 080723Z 06003KT M01/M06 A3033 RMK A01 T10101057  RH  071%=      5-min Rain = 0
KFR1 080724Z 06002KT M01/M06 A3033 RMK A01 T10101057  RH  071%=      5-min Rain = 0
KFR1 080725Z 05002KT M01/M06 A3033 RMK A01 T10101057  RH  071%=      5-min Rain = 0
KFR1 080726Z 06002KT M01/M06 A3033 RMK A01 T10101056  RH  071%=      5-min Rain = 0
KFR1 080727Z 06002KT M01/M06 A3033 RMK A01 T10101057  RH  071%=      5-min Rain = 0
KFR1 080728Z 06002KT M01/M06 A3033 RMK A01 T10101057  RH  071%=      5-min Rain = 0
KFR1 080729Z 05002KT M01/M06 A3033 RMK A01 T10101057  RH  071%=      5-min Rain = 0
KFR1 080730Z 05002KT M01/M06 A3033 RMK A01 T10101057  RH  070%=      5-min Rain = 0
KFR1 080731Z 05002KT M01/M06 A3033 RMK A01 T10101057  RH  071%=      5-min Rain = 0
KFR1 080732Z 04002KT M01/M06 A3033 RMK A01 T10101057  RH  071%=      5-min Rain = 0
KFR1 080733Z 04002KT M01/M06 A3033 RMK A01 T10101056  RH  071%=      5-min Rain = 0
KFR1 080734Z 05002KT M01/M06 A3033 RMK A01 T10101056  RH  071%=      5-min Rain = 0
KFR1 080735Z 04002KT M01/M06 A3033 RMK A01 T10101056  RH  071%=      5-min Rain = 0
KFR1 080736Z 06003KT M01/M06 A3033 RMK A01 T10101056  RH  071%=      5-min Rain = 0
KFR1 080737Z 05003KT M01/M06 A3032 RMK A01 T10101056  RH  071%=      5-min Rain = 0
KFR1 080738Z 06003KT M01/M06 A3032 RMK A01 T10101056  RH  071%=      5-min Rain = 0
KFR1 080739Z 06003KT M01/M06 A3032 RMK A01 T10091056  RH  070%=      5-min Rain = 0
KFR1 080740Z 06003KT M01/M06 A3032 RMK A01 T10101057  RH  070%=      5-min Rain = 0
KFR1 080741Z 06003KT M01/M06 A3032 RMK A01 T10101057  RH  070%=      5-min Rain = 0
KFR1 080742Z 06003KT M01/M06 A3032 RMK A01 T10101057  RH  070%=      5-min Rain = 0
KFR1 080743Z 06003KT M01/M06 A3032 RMK A01 T10101057  RH  070%=      5-min Rain = 0
KFR1 080744Z 06003KT M01/M06 A3032 RMK A01 T10101057  RH  070%=      5-min Rain = 0
KFR1 080745Z 07002KT M01/M06 A3032 RMK A01 T10101057  RH  070%=      5-min Rain = 0
KFR1 080746Z 07003KT M01/M06 A3032 RMK A01 T10101057  RH  070%=      5-min Rain = 0
KFR1 080747Z 07003KT M01/M06 A3032 RMK A01 T10101057  RH  070%=      5-min Rain = 0
KFR1 080748Z 06003KT M01/M06 A3032 RMK A01 T10101057  RH  070%=      5-min Rain = 0
KFR1 080749Z 07003KT M01/M06 A3032 RMK A01 T10101057  RH  070%=      5-min Rain = 0
KFR1 080750Z 07003KT M01/M06 A3032 RMK A01 T10101057  RH  070%=      5-min Rain = 0
KFR1 080751Z 07003KT M01/M06 A3032 RMK A01 T10101057  RH  070%=      5-min Rain = 0
KFR1 080752Z 06003KT M01/M06 A3032 RMK A01 T10101058  RH  070%=      5-min Rain = 0
KFR1 080753Z 06004KT M01/M06 A3032 RMK A01 T10101058  RH  070%=      5-min Rain = 0
KFR1 080754Z 07004KT M01/M06 A3032 RMK A01 T10101058  RH  070%=      5-min Rain = 0
KFR1 080755Z 07004KT M01/M06 A3032 RMK A01 T10101058  RH  070%=      5-min Rain = 0
KFR1 080756Z 07004KT M01/M06 A3032 RMK A01 T10101058  RH  070%=      5-min Rain = 0
KFR1 080757Z 07004KT M01/M06 A3032 RMK A01 T10101058  RH  070%=      5-min Rain = 0
KFR1 080758Z 06004KT M01/M06 A3032 RMK A01 T10101058  RH  070%=      5-min Rain = 0
KFR1 080759Z 07004KT M01/M06 A3032 RMK A01 T10101059  RH  070%=      5-min Rain = 0
KFR1 080800Z 08005KT M01/M06 A3032 RMK A01 T10101058  RH  070%=      5-min Rain = 0
KFR1 080801Z 08004KT M01/M06 A3032 RMK A01 T10101058  RH  070%=      5-min Rain = 0
KFR1 080802Z 08004KT M01/M06 A3032 RMK A01 T10101058  RH  070%=      5-min Rain = 0
KFR1 080803Z 08005KT M01/M06 A3032 RMK A01 T10101058  RH  070%=      5-min Rain = 0
KFR1 080804Z 07005KT M01/M06 A3032 RMK A01 T10101058  RH  070%=      5-min Rain = 0
KFR1 080805Z 08005KT M01/M06 A3032 RMK A01 T10111059  RH  070%=      5-min Rain = 0
KFR1 080806Z 07005KT M01/M06 A3032 RMK A01 T10111059  RH  070%=      5-min Rain = 0
KFR1 080807Z 07005KT M01/M06 A3032 RMK A01 T10111059  RH  070%=      5-min Rain = 0
KFR1 080808Z 07006KT M01/M06 A3032 RMK A01 T10111060  RH  069%=      5-min Rain = 0
KFR1 080809Z 07006KT M01/M06 A3032 RMK A01 T10111061  RH  069%=      5-min Rain = 0
KFR1 080810Z 07005KT M01/M06 A3032 RMK A01 T10111061  RH  069%=      5-min Rain = 0
KFR1 080811Z 07006KT M01/M06 A3032 RMK A01 T10111061  RH  069%=      5-min Rain = 0
KFR1 080812Z 07006KT M01/M06 A3032 RMK A01 T10111062  RH  069%=      5-min Rain = 0
KFR1 080813Z 07005KT M01/M06 A3032 RMK A01 T10121062  RH  069%=      5-min Rain = 0
KFR1 080814Z 06006KT M01/M06 A3032 RMK A01 T10111061  RH  069%=      5-min Rain = 0
KFR1 080815Z 07005KT M01/M06 A3032 RMK A01 T10111061  RH  069%=      5-min Rain = 0
KFR1 080816Z 06004KT M01/M06 A3032 RMK A01 T10121061  RH  069%=      5-min Rain = 0
KFR1 080817Z 07004KT M01/M06 A3032 RMK A01 T10121061  RH  069%=      5-min Rain = 0
KFR1 080818Z 07005KT M01/M06 A3032 RMK A01 T10121061  RH  069%=      5-min Rain = 0
KFR1 080819Z 07005KT M01/M06 A3032 RMK A01 T10111062  RH  069%=      5-min Rain = 0
KFR1 080820Z 07005KT M01/M06 A3032 RMK A01 T10111062  RH  069%=      5-min Rain = 0
KFR1 080821Z 07004KT M01/M06 A3032 RMK A01 T10111062  RH  068%=      5-min Rain = 0
KFR1 080822Z 06005KT M01/M06 A3032 RMK A01 T10121063  RH  068%=      5-min Rain = 0
KFR1 080823Z 06005KT M01/M06 A3032 RMK A01 T10121063  RH  068%=      5-min Rain = 0
KFR1 080824Z 06004KT M01/M06 A3032 RMK A01 T10121063  RH  068%=      5-min Rain = 0
KFR1 080825Z 06004KT M01/M06 A3032 RMK A01 T10111063  RH  068%=      5-min Rain = 0
KFR1 080826Z 06004KT M01/M06 A3032 RMK A01 T10111062  RH  068%=      5-min Rain = 0
KFR1 080827Z 05004KT M01/M06 A3032 RMK A01 T10121063  RH  068%=      5-min Rain = 0
KFR1 080828Z 06003KT M01/M06 A3032 RMK A01 T10111063  RH  068%=      5-min Rain = 0
KFR1 080829Z 07004KT M01/M06 A3032 RMK A01 T10111062  RH  068%=      5-min Rain = 0
KFR1 080830Z 06004KT M01/M06 A3032 RMK A01 T10121063  RH  068%=      5-min Rain = 0
KFR1 080831Z 06004KT M01/M06 A3032 RMK A01 T10121063  RH  068%=      5-min Rain = 0
KFR1 080832Z 06004KT M01/M06 A3032 RMK A01 T10121063  RH  068%=      5-min Rain = 0
KFR1 080833Z 07004KT M01/M06 A3032 RMK A01 T10121063  RH  068%=      5-min Rain = 0
KFR1 080834Z 08004KT M01/M06 A3032 RMK A01 T10111063  RH  068%=      5-min Rain = 0
KFR1 080835Z 07003KT M01/M06 A3032 RMK A01 T10111063  RH  068%=      5-min Rain = 0
KFR1 080836Z 08003KT M01/M06 A3032 RMK A01 T10111063  RH  068%=      5-min Rain = 0
KFR1 080837Z 08004KT M01/M06 A3032 RMK A01 T10111063  RH  068%=      5-min Rain = 0
KFR1 080838Z 08003KT M01/M07 A3032 RMK A01 T10121065  RH  067%=      5-min Rain = 0
KFR1 080839Z 06004KT M01/M07 A3032 RMK A01 T10121065  RH  067%=      5-min Rain = 0
KFR1 080840Z 07003KT M01/M07 A3032 RMK A01 T10121065  RH  067%=      5-min Rain = 0
KFR1 080841Z 08002KT M01/M07 A3032 RMK A01 T10121065  RH  067%=      5-min Rain = 0
KFR1 080842Z 09002KT M01/M06 A3032 RMK A01 T10121064  RH  068%=      5-min Rain = 0
KFR1 080843Z 08001KT M01/M06 A3032 RMK A01 T10121064  RH  068%=      5-min Rain = 0
KFR1 080844Z 09003KT M01/M06 A3032 RMK A01 T10121064  RH  068%=      5-min Rain = 0
KFR1 080845Z 09003KT M01/M06 A3032 RMK A01 T10121064  RH  068%=      5-min Rain = 0
KFR1 080846Z 09003KT M01/M06 A3032 RMK A01 T10121064  RH  068%=      5-min Rain = 0
KFR1 080847Z 09002KT M01/M07 A3032 RMK A01 T10121065  RH  067%=      5-min Rain = 0
KFR1 080848Z 09003KT M01/M06 A3032 RMK A01 T10121064  RH  068%=      5-min Rain = 0
KFR1 080849Z 08003KT M01/M06 A3032 RMK A01 T10121064  RH  068%=      5-min Rain = 0
KFR1 080850Z 07003KT M01/M06 A3032 RMK A01 T10121064  RH  068%=      5-min Rain = 0
KFR1 080851Z 07003KT M01/M06 A3032 RMK A01 T10131064  RH  068%=      5-min Rain = 0
KFR1 080852Z 07004KT M01/M06 A3032 RMK A01 T10131064  RH  068%=      5-min Rain = 0
KFR1 080853Z 07004KT M01/M06 A3032 RMK A01 T10131064  RH  068%=      5-min Rain = 0
KFR1 080854Z 06004KT M01/M06 A3031 RMK A01 T10121064  RH  068%=      5-min Rain = 0
KFR1 080855Z 06005KT M01/M06 A3031 RMK A01 T10121064  RH  068%=      5-min Rain = 0
KFR1 080856Z 05005KT M01/M06 A3031 RMK A01 T10131064  RH  068%=      5-min Rain = 0
KFR1 080857Z 05005KT M01/M06 A3031 RMK A01 T10121064  RH  068%=      5-min Rain = 0
KFR1 080858Z 05004KT M01/M06 A3031 RMK A01 T10131064  RH  068%=      5-min Rain = 0
KFR1 080859Z 05004KT M01/M06 A3031 RMK A01 T10131064  RH  068%=      5-min Rain = 0
KFR1 080900Z 05004KT M01/M06 A3031 RMK A01 T10131064  RH  068%=      5-min Rain = 0
KFR1 080901Z 05005KT M01/M06 A3031 RMK A01 T10131063  RH  068%=      5-min Rain = 0
KFR1 080902Z 05004KT M01/M06 A3031 RMK A01 T10121063  RH  068%=      5-min Rain = 0
KFR1 080903Z 04004KT M01/M06 A3031 RMK A01 T10121063  RH  068%=      5-min Rain = 0
KFR1 080904Z 04005KT M01/M06 A3031 RMK A01 T10121063  RH  068%=      5-min Rain = 0
KFR1 080905Z 04006KT M01/M06 A3031 RMK A01 T10121063  RH  068%=      5-min Rain = 0
KFR1 080906Z 04005KT M01/M06 A3031 RMK A01 T10121064  RH  068%=      5-min Rain = 0
KFR1 080907Z 04005KT M01/M06 A3031 RMK A01 T10121064  RH  068%=      5-min Rain = 0
KFR1 080908Z 04003KT M01/M06 A3031 RMK A01 T10131064  RH  068%=      5-min Rain = 0
KFR1 080909Z 04004KT M01/M06 A3031 RMK A01 T10121063  RH  068%=      5-min Rain = 0
KFR1 080910Z 05004KT M01/M06 A3031 RMK A01 T10121063  RH  068%=      5-min Rain = 0
KFR1 080911Z 05004KT M01/M06 A3031 RMK A01 T10131064  RH  068%=      5-min Rain = 0
KFR1 080912Z 04004KT M01/M06 A3031 RMK A01 T10131064  RH  068%=      5-min Rain = 0
KFR1 080913Z 04005KT M01/M07 A3031 RMK A01 T10131065  RH  068%=      5-min Rain = 0
KFR1 080914Z 04004KT M01/M07 A3031 RMK A01 T10131065  RH  067%=      5-min Rain = 0
KFR1 080915Z 04004KT M01/M07 A3031 RMK A01 T10131066  RH  067%=      5-min Rain = 0
KFR1 080916Z 05005KT M01/M07 A3031 RMK A01 T10131066  RH  067%=      5-min Rain = 0
KFR1 080917Z 04005KT M01/M07 A3031 RMK A01 T10131066  RH  067%=      5-min Rain = 0
KFR1 080918Z 05005KT M01/M07 A3031 RMK A01 T10131067  RH  066%=      5-min Rain = 0
KFR1 080919Z 06005KT M01/M07 A3031 RMK A01 T10131069  RH  066%=      5-min Rain = 0
KFR1 080920Z 06006KT M01/M07 A3031 RMK A01 T10131071  RH  065%=      5-min Rain = 0
KFR1 080921Z 06006KT M01/M07 A3031 RMK A01 T10131071  RH  064%=      5-min Rain = 0
KFR1 080922Z 05005KT M01/M07 A3031 RMK A01 T10131071  RH  065%=      5-min Rain = 0
KFR1 080923Z 06005KT M01/M07 A3031 RMK A01 T10131071  RH  065%=      5-min Rain = 0
KFR1 080924Z 06005KT M01/M07 A3031 RMK A01 T10131070  RH  065%=      5-min Rain = 0
KFR1 080925Z 05005KT M01/M07 A3031 RMK A01 T10131071  RH  065%=      5-min Rain = 0
KFR1 080926Z 05004KT M01/M07 A3031 RMK A01 T10131071  RH  065%=      5-min Rain = 0
KFR1 080927Z 05005KT M01/M07 A3031 RMK A01 T10131071  RH  065%=      5-min Rain = 0
KFR1 080928Z 05005KT M01/M07 A3031 RMK A01 T10131072  RH  064%=      5-min Rain = 0
KFR1 080929Z 05004KT M01/M07 A3031 RMK A01 T10131072  RH  064%=      5-min Rain = 0
KFR1 080930Z 05004KT M01/M07 A3031 RMK A01 T10131072  RH  064%=      5-min Rain = 0
KFR1 080931Z 05004KT M01/M07 A3031 RMK A01 T10131072  RH  064%=      5-min Rain = 0
KFR1 080932Z 05004KT M01/M07 A3031 RMK A01 T10121071  RH  064%=      5-min Rain = 0
KFR1 080933Z 06004KT M01/M07 A3031 RMK A01 T10121071  RH  064%=      5-min Rain = 0
KFR1 080934Z 05004KT M01/M07 A3031 RMK A01 T10121071  RH  065%=      5-min Rain = 0
KFR1 080935Z 05004KT M01/M07 A3031 RMK A01 T10121070  RH  065%=      5-min Rain = 0
KFR1 080936Z 05005KT M01/M07 A3031 RMK A01 T10121070  RH  065%=      5-min Rain = 0
KFR1 080937Z 06004KT M01/M07 A3031 RMK A01 T10121069  RH  065%=      5-min Rain = 0
KFR1 080938Z 06004KT M01/M07 A3031 RMK A01 T10121069  RH  065%=      5-min Rain = 0
KFR1 080939Z 06004KT M01/M07 A3031 RMK A01 T10131069  RH  066%=      5-min Rain = 0
KFR1 080940Z 06004KT M01/M07 A3031 RMK A01 T10121069  RH  066%=      5-min Rain = 0
KFR1 080941Z 05003KT M01/M07 A3031 RMK A01 T10131069  RH  066%=      5-min Rain = 0
KFR1 080942Z 06004KT M01/M07 A3031 RMK A01 T10131069  RH  066%=      5-min Rain = 0
KFR1 080943Z 06003KT M01/M07 A3031 RMK A01 T10131069  RH  066%=      5-min Rain = 0
KFR1 080944Z 06004KT M01/M07 A3031 RMK A01 T10131069  RH  066%=      5-min Rain = 0
KFR1 080945Z 05004KT M01/M07 A3031 RMK A01 T10131069  RH  066%=      5-min Rain = 0
KFR1 080946Z 05004KT M01/M07 A3031 RMK A01 T10131069  RH  066%=      5-min Rain = 0
KFR1 080947Z 04004KT M01/M07 A3031 RMK A01 T10131069  RH  066%=      5-min Rain = 0
KFR1 080948Z 05004KT M01/M07 A303 RMK A01 T10131069  RH  066%=      5-min Rain = 0
KFR1 080949Z 04005KT M01/M07 A303 RMK A01 T10131068  RH  066%=      5-min Rain = 0
KFR1 080950Z 04004KT M01/M07 A303 RMK A01 T10141069  RH  066%=      5-min Rain = 0
KFR1 080951Z 05004KT M01/M07 A303 RMK A01 T10141069  RH  066%=      5-min Rain = 0
KFR1 080952Z 05003KT M01/M07 A303 RMK A01 T10141069  RH  066%=      5-min Rain = 0
KFR1 080953Z 05003KT M01/M07 A303 RMK A01 T10141069  RH  067%=      5-min Rain = 0
KFR1 080954Z 05003KT M02/M07 A303 RMK A01 T10151069  RH  067%=      5-min Rain = 0
KFR1 080955Z 05004KT M02/M07 A303 RMK A01 T10151069  RH  067%=      5-min Rain = 0
KFR1 080956Z 05003KT M02/M07 A303 RMK A01 T10151068  RH  067%=      5-min Rain = 0
KFR1 080957Z 05004KT M01/M07 A303 RMK A01 T10141068  RH  067%=      5-min Rain = 0
KFR1 080958Z 05004KT M02/M07 A303 RMK A01 T10151069  RH  067%=      5-min Rain = 0
KFR1 080959Z 05004KT M02/M07 A303 RMK A01 T10151069  RH  067%=      5-min Rain = 0
KFR1 081000Z 05004KT M02/M07 A303 RMK A01 T10151069  RH  066%=      5-min Rain = 0
KFR1 081001Z 05003KT M02/M07 A303 RMK A01 T10151070  RH  066%=      5-min Rain = 0
KFR1 081002Z 04005KT M02/M07 A303 RMK A01 T10151069  RH  066%=      5-min Rain = 0
KFR1 081003Z 05003KT M02/M07 A303 RMK A01 T10151070  RH  066%=      5-min Rain = 0
KFR1 081004Z 05004KT M02/M07 A303 RMK A01 T10151069  RH  066%=      5-min Rain = 0
KFR1 081005Z 05004KT M02/M07 A303 RMK A01 T10151070  RH  066%=      5-min Rain = 0
KFR1 081006Z 04003KT M02/M07 A303 RMK A01 T10151069  RH  066%=      5-min Rain = 0
KFR1 081007Z 05003KT M01/M07 A303 RMK A01 T10141069  RH  066%=      5-min Rain = 0
KFR1 081008Z 04004KT M01/M07 A303 RMK A01 T10141068  RH  067%=      5-min Rain = 0
KFR1 081009Z 04004KT M01/M07 A3029 RMK A01 T10141068  RH  067%=      5-min Rain = 0
KFR1 081010Z 04004KT M01/M07 A3029 RMK A01 T10141068  RH  067%=      5-min Rain = 0
KFR1 081011Z 04005KT M01/M07 A3029 RMK A01 T10141068  RH  067%=      5-min Rain = 0
KFR1 081012Z 05004KT M01/M07 A3029 RMK A01 T10141067  RH  067%=      5-min Rain = 0
KFR1 081013Z 05004KT M01/M07 A3029 RMK A01 T10141067  RH  067%=      5-min Rain = 0
KFR1 081014Z 04004KT M01/M07 A3029 RMK A01 T10131067  RH  067%=      5-min Rain = 0
KFR1 081015Z 04005KT M01/M07 A3029 RMK A01 T10131067  RH  067%=      5-min Rain = 0
KFR1 081016Z 05005KT M01/M07 A3029 RMK A01 T10131067  RH  067%=      5-min Rain = 0
KFR1 081017Z 04005KT M01/M07 A3029 RMK A01 T10131067  RH  067%=      5-min Rain = 0
KFR1 081018Z 05004KT M01/M07 A3029 RMK A01 T10131067  RH  066%=      5-min Rain = 0
KFR1 081019Z 05004KT M01/M07 A3029 RMK A01 T10131067  RH  066%=      5-min Rain = 0
KFR1 081020Z 05004KT M01/M07 A3029 RMK A01 T10131067  RH  066%=      5-min Rain = 0
KFR1 081021Z 05004KT M01/M07 A3029 RMK A01 T10131067  RH  066%=      5-min Rain = 0
KFR1 081022Z 05004KT M01/M07 A3029 RMK A01 T10131067  RH  066%=      5-min Rain = 0
KFR1 081023Z 04004KT M01/M07 A3029 RMK A01 T10121067  RH  066%=      5-min Rain = 0
KFR1 081024Z 05004KT M01/M07 A3029 RMK A01 T10121067  RH  066%=      5-min Rain = 0
KFR1 081025Z 05003KT M01/M07 A303 RMK A01 T10121066  RH  066%=      5-min Rain = 0
KFR1 081026Z 06003KT M01/M07 A303 RMK A01 T10121066  RH  067%=      5-min Rain = 0
KFR1 081027Z 06003KT M01/M07 A303 RMK A01 T10121066  RH  067%=      5-min Rain = 0
KFR1 081028Z 05003KT M01/M07 A303 RMK A01 T10121066  RH  067%=      5-min Rain = 0
KFR1 081029Z 06003KT M01/M07 A303 RMK A01 T10121066  RH  067%=      5-min Rain = 0
KFR1 081030Z 06002KT M01/M07 A303 RMK A01 T10121065  RH  067%=      5-min Rain = 0
KFR1 081031Z 06003KT M01/M07 A303 RMK A01 T10121066  RH  067%=      5-min Rain = 0
KFR1 081032Z 06003KT M01/M07 A303 RMK A01 T10121066  RH  067%=      5-min Rain = 0
KFR1 081033Z 05003KT M01/M07 A303 RMK A01 T10121066  RH  066%=      5-min Rain = 0
KFR1 081034Z 04003KT M01/M07 A303 RMK A01 T10111066  RH  066%=      5-min Rain = 0
KFR1 081035Z 04002KT M01/M07 A303 RMK A01 T10111066  RH  067%=      5-min Rain = 0
KFR1 081036Z 03001KT M01/M07 A303 RMK A01 T10111065  RH  067%=      5-min Rain = 0
KFR1 081037Z 04002KT M01/M07 A303 RMK A01 T10111065  RH  067%=      5-min Rain = 0
KFR1 081038Z 02002KT M01/M07 A303 RMK A01 T10111065  RH  067%=      5-min Rain = 0
KFR1 081039Z 02003KT M01/M07 A303 RMK A01 T10111065  RH  067%=      5-min Rain = 0
KFR1 081040Z 04003KT M01/M07 A303 RMK A01 T10111065  RH  066%=      5-min Rain = 0
KFR1 081041Z 02002KT M01/M07 A303 RMK A01 T10101065  RH  067%=      5-min Rain = 0
KFR1 081042Z 04003KT M01/M06 A303 RMK A01 T10101064  RH  067%=      5-min Rain = 0
KFR1 081043Z 05002KT M01/M06 A303 RMK A01 T10101064  RH  067%=      5-min Rain = 0
KFR1 081044Z 03002KT M01/M07 A303 RMK A01 T10101065  RH  066%=      5-min Rain = 0
KFR1 081045Z 02003KT M01/M06 A3029 RMK A01 T10101064  RH  067%=      5-min Rain = 0
KFR1 081046Z 02004KT M01/M06 A3029 RMK A01 T10101064  RH  067%=      5-min Rain = 0
KFR1 081047Z 02004KT M01/M06 A3029 RMK A01 T10101063  RH  067%=      5-min Rain = 0
KFR1 081048Z 02006KT M01/M06 A3029 RMK A01 T10101063  RH  067%=      5-min Rain = 0
KFR1 081049Z 03005KT M01/M06 A3029 RMK A01 T10101062  RH  068%=      5-min Rain = 0
KFR1 081050Z 02006KT M01/M06 A3029 RMK A01 T10091062  RH  068%=      5-min Rain = 0
KFR1 081051Z 02005KT M01/M06 A3029 RMK A01 T10091062  RH  067%=      5-min Rain = 0
KFR1 081052Z 01005KT M01/M06 A3029 RMK A01 T10091062  RH  067%=      5-min Rain = 0
KFR1 081053Z 03004KT M01/M06 A3029 RMK A01 T10091061  RH  068%=      5-min Rain = 0
KFR1 081054Z 01006KT M01/M06 A3029 RMK A01 T10091061  RH  068%=      5-min Rain = 0
KFR1 081055Z 01007KT M01/M06 A3029 RMK A01 T10091062  RH  067%=      5-min Rain = 0
KFR1 081056Z 01004KT M01/M06 A3029 RMK A01 T10081062  RH  067%=      5-min Rain = 0
KFR1 081057Z 01005KT M01/M06 A3029 RMK A01 T10081062  RH  067%=      5-min Rain = 0
KFR1 081058Z 01005KT M01/M06 A3029 RMK A01 T10081061  RH  067%=      5-min Rain = 0
KFR1 081059Z 01005KT M01/M06 A3029 RMK A01 T10081061  RH  067%=      5-min Rain = 0
KFR1 081100Z 36007KT M01/M06 A3029 RMK A01 T10081061  RH  068%=      5-min Rain = 0
KFR1 081101Z 01005KT M01/M06 A3029 RMK A01 T10081061  RH  068%=      5-min Rain = 0
KFR1 081102Z 01004KT M01/M06 A3029 RMK A01 T10091060  RH  068%=      5-min Rain = 0
KFR1 081103Z 01006KT M01/M06 A3029 RMK A01 T10081060  RH  068%=      5-min Rain = 0
KFR1 081104Z 00005KT M01/M06 A3029 RMK A01 T10081060  RH  068%=      5-min Rain = 0
KFR1 081105Z 01006KT M01/M06 A3029 RMK A01 T10081060  RH  068%=      5-min Rain = 0
KFR1 081106Z 00006KT M01/M06 A3029 RMK A01 T10081061  RH  067%=      5-min Rain = 0
KFR1 081107Z 00005KT M01/M06 A3029 RMK A01 T10081062  RH  067%=      5-min Rain = 0
KFR1 081108Z 00005KT M01/M06 A3029 RMK A01 T10091061  RH  068%=      5-min Rain = 0
KFR1 081109Z 02005KT M01/M06 A3029 RMK A01 T10091060  RH  068%=      5-min Rain = 0
KFR1 081110Z 01006KT M01/M06 A3029 RMK A01 T10091059  RH  069%=      5-min Rain = 0
KFR1 081111Z 02005KT M01/M06 A3029 RMK A01 T10091060  RH  069%=      5-min Rain = 0
KFR1 081112Z 03006KT M01/M06 A3029 RMK A01 T10091060  RH  068%=      5-min Rain = 0
KFR1 081113Z 02007KT M01/M06 A3029 RMK A01 T10091059  RH  069%=      5-min Rain = 0
KFR1 081114Z 00006KT M01/M06 A3029 RMK A01 T10081059  RH  068%=      5-min Rain = 0
KFR1 081115Z 02006KT M01/M06 A3029 RMK A01 T10081060  RH  068%=      5-min Rain = 0
KFR1 081116Z 01005KT M01/M06 A3029 RMK A01 T10081060  RH  068%=      5-min Rain = 0
KFR1 081117Z 03006KT M01/M06 A3029 RMK A01 T10081061  RH  068%=      5-min Rain = 0
KFR1 081118Z 04006KT M01/M06 A3029 RMK A01 T10081061  RH  067%=      5-min Rain = 0
KFR1 081119Z 03007KT M01/M06 A3029 RMK A01 T10081063  RH  067%=      5-min Rain = 0
KFR1 081120Z 04007KT M01/M06 A3029 RMK A01 T10091064  RH  066%=      5-min Rain = 0
KFR1 081121Z 04006KT M01/M07 A3029 RMK A01 T10091065  RH  066%=      5-min Rain = 0
KFR1 081122Z 04007KT M01/M07 A3029 RMK A01 T10091065  RH  066%=      5-min Rain = 0
KFR1 081123Z 04007KT M01/M06 A3029 RMK A01 T10091064  RH  066%=      5-min Rain = 0
KFR1 081124Z 04007KT M01/M07 A3029 RMK A01 T10091065  RH  066%=      5-min Rain = 0
KFR1 081125Z 04008KT M01/M07 A3029 RMK A01 T10091065  RH  066%=      5-min Rain = 0
KFR1 081126Z 04008KT M01/M07 A3029 RMK A01 T10091065  RH  066%=      5-min Rain = 0
KFR1 081127Z 03007KT M01/M07 A3029 RMK A01 T10091065  RH  066%=      5-min Rain = 0
KFR1 081128Z 04008KT M01/M07 A3029 RMK A01 T10091065  RH  066%=      5-min Rain = 0
KFR1 081129Z 03005KT M01/M06 A3029 RMK A01 T10091064  RH  066%=      5-min Rain = 0
KFR1 081130Z 03006KT M01/M06 A3029 RMK A01 T10091063  RH  067%=      5-min Rain = 0
KFR1 081131Z 04005KT M01/M06 A303 RMK A01 T10091064  RH  066%=      5-min Rain = 0
KFR1 081132Z 04006KT M01/M06 A303 RMK A01 T10091064  RH  066%=      5-min Rain = 0
KFR1 081133Z 04005KT M01/M06 A303 RMK A01 T10091063  RH  067%=      5-min Rain = 0
KFR1 081134Z 04004KT M01/M06 A303 RMK A01 T10091062  RH  067%=      5-min Rain = 0
KFR1 081135Z 05006KT M01/M06 A303 RMK A01 T10091063  RH  067%=      5-min Rain = 0
KFR1 081136Z 05006KT M01/M06 A303 RMK A01 T10091064  RH  066%=      5-min Rain = 0
KFR1 081137Z 05006KT M01/M07 A303 RMK A01 T10091065  RH  066%=      5-min Rain = 0
KFR1 081138Z 04006KT M01/M06 A303 RMK A01 T10091064  RH  066%=      5-min Rain = 0
KFR1 081139Z 03006KT M01/M06 A303 RMK A01 T10091064  RH  066%=      5-min Rain = 0
KFR1 081140Z 04006KT M01/M06 A303 RMK A01 T10091064  RH  066%=      5-min Rain = 0
KFR1 081141Z 04006KT M01/M06 A303 RMK A01 T10091064  RH  066%=      5-min Rain = 0
KFR1 081142Z 04006KT M01/M06 A303 RMK A01 T10091064  RH  066%=      5-min Rain = 0
KFR1 081143Z 05005KT M01/M06 A303 RMK A01 T10091064  RH  066%=      5-min Rain = 0
KFR1 081144Z 08004KT M01/M06 A303 RMK A01 T10091064  RH  066%=      5-min Rain = 0
KFR1 081145Z 07004KT M01/M07 A303 RMK A01 T10101065  RH  066%=      5-min Rain = 0
KFR1 081146Z 07005KT M01/M07 A303 RMK A01 T10111066  RH  066%=      5-min Rain = 0
KFR1 081147Z 06005KT M01/M07 A303 RMK A01 T10121067  RH  066%=      5-min Rain = 0
KFR1 081148Z 06005KT M01/M07 A303 RMK A01 T10121068  RH  066%=      5-min Rain = 0
KFR1 081149Z 05005KT M01/M07 A303 RMK A01 T10121068  RH  066%=      5-min Rain = 0
KFR1 081150Z 06004KT M01/M07 A303 RMK A01 T10131068  RH  066%=      5-min Rain = 0
KFR1 081151Z 07005KT M01/M07 A303 RMK A01 T10131068  RH  066%=      5-min Rain = 0
KFR1 081152Z 08004KT M01/M07 A303 RMK A01 T10131068  RH  066%=      5-min Rain = 0
KFR1 081153Z 08005KT M01/M07 A303 RMK A01 T10131069  RH  066%=      5-min Rain = 0
KFR1 081154Z 08004KT M01/M07 A3031 RMK A01 T10131069  RH  066%=      5-min Rain = 0
KFR1 081155Z 07004KT M01/M07 A3031 RMK A01 T10131069  RH  066%=      5-min Rain = 0
KFR1 081156Z 07005KT M01/M07 A303 RMK A01 T10141069  RH  066%=      5-min Rain = 0
KFR1 081157Z 07006KT M01/M07 A303 RMK A01 T10141070  RH  066%=      5-min Rain = 0
KFR1 081158Z 06006KT M01/M07 A303 RMK A01 T10141070  RH  065%=      5-min Rain = 0
KFR1 081159Z 06005KT M01/M07 A303 RMK A01 T10141071  RH  065%=      5-min Rain = 0
KFR1 081200Z 07005KT M01/M07 A303 RMK A01 T10141071  RH  065%=      5-min Rain = 0
KFR1 081201Z 07004KT M01/M07 A3031 RMK A01 T10141071  RH  065%=      5-min Rain = 0
KFR1 081202Z 08004KT M01/M07 A3031 RMK A01 T10141071  RH  065%=      5-min Rain = 0
KFR1 081203Z 08004KT M01/M07 A3031 RMK A01 T10141071  RH  065%=      5-min Rain = 0
KFR1 081204Z 07005KT M01/M07 A3031 RMK A01 T10141070  RH  065%=      5-min Rain = 0
KFR1 081205Z 08004KT M01/M07 A3031 RMK A01 T10141070  RH  065%=      5-min Rain = 0
KFR1 081206Z 08004KT M01/M07 A3031 RMK A01 T10141071  RH  065%=      5-min Rain = 0
KFR1 081207Z 07005KT M01/M07 A3031 RMK A01 T10141071  RH  065%=      5-min Rain = 0
KFR1 081208Z 07004KT M01/M07 A3031 RMK A01 T10141072  RH  065%=      5-min Rain = 0
KFR1 081209Z 07005KT M01/M07 A3031 RMK A01 T10141073  RH  064%=      5-min Rain = 0
KFR1 081210Z 07006KT M01/M07 A303 RMK A01 T10141074  RH  064%=      5-min Rain = 0
KFR1 081211Z 07006KT M01/M08 A303 RMK A01 T10141075  RH  063%=      5-min Rain = 0
KFR1 081212Z 07005KT M01/M08 A303 RMK A01 T10141075  RH  063%=      5-min Rain = 0
KFR1 081213Z 08005KT M01/M08 A303 RMK A01 T10141076  RH  063%=      5-min Rain = 0
KFR1 081214Z 08005KT M01/M08 A3031 RMK A01 T10141075  RH  063%=      5-min Rain = 0
KFR1 081215Z 07005KT M01/M08 A3031 RMK A01 T10141076  RH  063%=      5-min Rain = 0
KFR1 081216Z 07005KT M01/M08 A3031 RMK A01 T10141075  RH  063%=      5-min Rain = 0
KFR1 081217Z 07005KT M01/M08 A3031 RMK A01 T10141076  RH  063%=      5-min Rain = 0
KFR1 081218Z 08005KT M01/M08 A3031 RMK A01 T10141076  RH  063%=      5-min Rain = 0
KFR1 081219Z 08005KT M01/M08 A3031 RMK A01 T10141076  RH  063%=      5-min Rain = 0
KFR1 081220Z 07006KT M01/M08 A3031 RMK A01 T10141077  RH  063%=      5-min Rain = 0
KFR1 081221Z 08006KT M01/M08 A3031 RMK A01 T10141077  RH  063%=      5-min Rain = 0
KFR1 081222Z 08005KT M01/M08 A3031 RMK A01 T10141077  RH  063%=      5-min Rain = 0
KFR1 081223Z 08005KT M01/M08 A3031 RMK A01 T10141077  RH  062%=      5-min Rain = 0
KFR1 081224Z 07006KT M02/M08 A3031 RMK A01 T10151078  RH  062%=      5-min Rain = 0
KFR1 081225Z 07005KT M02/M08 A3031 RMK A01 T10151078  RH  062%=      5-min Rain = 0
KFR1 081226Z 07006KT M02/M08 A3031 RMK A01 T10151078  RH  062%=      5-min Rain = 0
KFR1 081227Z 08006KT M02/M08 A3031 RMK A01 T10151079  RH  062%=      5-min Rain = 0
KFR1 081228Z 07005KT M02/M08 A3031 RMK A01 T10151078  RH  062%=      5-min Rain = 0
KFR1 081229Z 07005KT M02/M08 A3031 RMK A01 T10151078  RH  062%=      5-min Rain = 0
KFR1 081230Z 08006KT M02/M08 A3031 RMK A01 T10151078  RH  062%=      5-min Rain = 0
KFR1 081231Z 08005KT M02/M08 A3031 RMK A01 T10151078  RH  062%=      5-min Rain = 0
KFR1 081232Z 07005KT M02/M08 A3031 RMK A01 T10151079  RH  062%=      5-min Rain = 0
KFR1 081233Z 07005KT M02/M08 A3031 RMK A01 T10151078  RH  062%=      5-min Rain = 0
KFR1 081234Z 07005KT M02/M08 A3031 RMK A01 T10151079  RH  062%=      5-min Rain = 0
KFR1 081235Z 07005KT M02/M08 A3031 RMK A01 T10151079  RH  062%=      5-min Rain = 0
KFR1 081236Z 06007KT M02/M08 A3031 RMK A01 T10151079  RH  062%=      5-min Rain = 0
KFR1 081237Z 06006KT M02/M08 A3031 RMK A01 T10151079  RH  062%=      5-min Rain = 0
KFR1 081238Z 06006KT M02/M08 A3031 RMK A01 T10151080  RH  061%=      5-min Rain = 0
KFR1 081239Z 06005KT M02/M08 A3031 RMK A01 T10151080  RH  061%=      5-min Rain = 0
KFR1 081240Z 07005KT M02/M08 A3031 RMK A01 T10151080  RH  062%=      5-min Rain = 0
KFR1 081241Z 06006KT M02/M08 A3031 RMK A01 T10151080  RH  061%=      5-min Rain = 0
KFR1 081242Z 06006KT M02/M08 A3031 RMK A01 T10151080  RH  061%=      5-min Rain = 0
KFR1 081243Z 06005KT M02/M08 A3031 RMK A01 T10151080  RH  061%=      5-min Rain = 0
KFR1 081244Z 05007KT M02/M08 A3031 RMK A01 T10151080  RH  061%=      5-min Rain = 0
KFR1 081245Z 07005KT M02/M08 A3031 RMK A01 T10151079  RH  061%=      5-min Rain = 0
KFR1 081246Z 06006KT M02/M08 A3031 RMK A01 T10151079  RH  062%=      5-min Rain = 0
KFR1 081247Z 05006KT M02/M08 A3031 RMK A01 T10151080  RH  061%=      5-min Rain = 0
KFR1 081248Z 05006KT M02/M08 A3031 RMK A01 T10151080  RH  062%=      5-min Rain = 0
KFR1 081249Z 06005KT M02/M08 A3031 RMK A01 T10151080  RH  062%=      5-min Rain = 0
KFR1 081250Z 05005KT M02/M08 A3031 RMK A01 T10151079  RH  062%=      5-min Rain = 0
KFR1 081251Z 05005KT M02/M08 A3031 RMK A01 T10151079  RH  062%=      5-min Rain = 0
KFR1 081252Z 05005KT M02/M08 A3031 RMK A01 T10151078  RH  062%=      5-min Rain = 0
KFR1 081253Z 05005KT M02/M08 A3031 RMK A01 T10151078  RH  062%=      5-min Rain = 0
KFR1 081254Z 05006KT M02/M08 A3031 RMK A01 T10151078  RH  062%=      5-min Rain = 0
KFR1 081255Z 05005KT M02/M08 A3031 RMK A01 T10151078  RH  062%=      5-min Rain = 0
KFR1 081256Z 04006KT M02/M08 A3031 RMK A01 T10151078  RH  062%=      5-min Rain = 0
KFR1 081257Z 05006KT M02/M08 A3031 RMK A01 T10151077  RH  062%=      5-min Rain = 0
KFR1 081258Z 05006KT M02/M08 A3031 RMK A01 T10151077  RH  063%=      5-min Rain = 0
KFR1 081259Z 05006KT M02/M08 A3031 RMK A01 T10151077  RH  063%=      5-min Rain = 0
KFR1 081300Z 04005KT M02/M08 A3031 RMK A01 T10151077  RH  062%=      5-min Rain = 0
KFR1 081301Z 05005KT M02/M08 A3031 RMK A01 T10151077  RH  063%=      5-min Rain = 0
KFR1 081302Z 04004KT M02/M08 A3032 RMK A01 T10151077  RH  063%=      5-min Rain = 0
KFR1 081303Z 04006KT M02/M08 A3031 RMK A01 T10151075  RH  063%=      5-min Rain = 0
KFR1 081304Z 04006KT M02/M07 A3031 RMK A01 T10151074  RH  064%=      5-min Rain = 0
KFR1 081305Z 04006KT M02/M07 A3031 RMK A01 T10151073  RH  065%=      5-min Rain = 0
KFR1 081306Z 02005KT M02/M07 A3031 RMK A01 T10151073  RH  065%=      5-min Rain = 0
KFR1 081307Z 03006KT M02/M07 A3031 RMK A01 T10151073  RH  065%=      5-min Rain = 0
KFR1 081308Z 03005KT M02/M07 A3031 RMK A01 T10151073  RH  064%=      5-min Rain = 0
KFR1 081309Z 04006KT M01/M07 A3031 RMK A01 T10141072  RH  065%=      5-min Rain = 0
KFR1 081310Z 04006KT M01/M07 A3031 RMK A01 T10141072  RH  065%=      5-min Rain = 0
KFR1 081311Z 04008KT M01/M07 A3031 RMK A01 T10141072  RH  065%=      5-min Rain = 0
KFR1 081312Z 04007KT M01/M07 A3031 RMK A01 T10141073  RH  064%=      5-min Rain = 0
KFR1 081313Z 04006KT M01/M07 A3031 RMK A01 T10141073  RH  064%=      5-min Rain = 0
KFR1 081314Z 02006KT M02/M07 A3031 RMK A01 T10151072  RH  065%=      5-min Rain = 0
KFR1 081315Z 03007KT M02/M07 A3031 RMK A01 T10151070  RH  066%=      5-min Rain = 0
KFR1 081316Z 03007KT M02/M07 A3031 RMK A01 T10151068  RH  067%=      5-min Rain = 0
KFR1 081317Z 03006KT M02/M07 A3031 RMK A01 T10151067  RH  068%=      5-min Rain = 0
KFR1 081318Z 03007KT M01/M07 A3032 RMK A01 T10141066  RH  068%=      5-min Rain = 0
KFR1 081319Z 02005KT M01/M07 A3032 RMK A01 T10141065  RH  068%=      5-min Rain = 0
KFR1 081320Z 02005KT M02/M07 A3032 RMK A01 T10151065  RH  069%=      5-min Rain = 0
KFR1 081321Z 02006KT M02/M06 A3032 RMK A01 T10151064  RH  069%=      5-min Rain = 0
KFR1 081322Z 02009KT M02/M06 A3032 RMK A01 T10151064  RH  069%=      5-min Rain = 0
KFR1 081323Z 01007KT M02/M06 A3032 RMK A01 T10151064  RH  069%=      5-min Rain = 0
KFR1 081324Z 02007KT M02/M06 A3032 RMK A01 T10151064  RH  069%=      5-min Rain = 0
KFR1 081325Z 03006KT M02/M06 A3032 RMK A01 T10161064  RH  070%=      5-min Rain = 0
KFR1 081326Z 01006KT M02/M07 A3032 RMK A01 T10161065  RH  069%=      5-min Rain = 0
KFR1 081327Z 00009KT M02/M07 A3032 RMK A01 T10161066  RH  069%=      5-min Rain = 0
KFR1 081328Z 02007KT M02/M07 A3032 RMK A01 T10171068  RH  068%=      5-min Rain = 0
KFR1 081329Z 01007KT M02/M07 A3032 RMK A01 T10181068  RH  069%=      5-min Rain = 0
KFR1 081330Z 01007KT M02/M07 A3032 RMK A01 T10181067  RH  069%=      5-min Rain = 0
KFR1 081331Z 01008KT M02/M07 A3032 RMK A01 T10181068  RH  069%=      5-min Rain = 0
KFR1 081332Z 01009KT M02/M07 A3032 RMK A01 T10191069  RH  069%=      5-min Rain = 0
KFR1 081333Z 00008KT M02/M07 A3032 RMK A01 T10191069  RH  069%=      5-min Rain = 0
KFR1 081334Z 02007KT M02/M07 A3032 RMK A01 T10201070  RH  068%=      5-min Rain = 0
KFR1 081335Z 00006KT M02/M07 A3032 RMK A01 T10201070  RH  068%=      5-min Rain = 0
KFR1 081336Z 01007KT M02/M07 A3032 RMK A01 T10211071  RH  068%=      5-min Rain = 0
KFR1 081337Z 01007KT M02/M07 A3032 RMK A01 T10211071  RH  068%=      5-min Rain = 0
KFR1 081338Z 01008KT M02/M07 A3032 RMK A01 T10211072  RH  068%=      5-min Rain = 0
KFR1 081339Z 01007KT M02/M07 A3032 RMK A01 T10211070  RH  069%=      5-min Rain = 0
KFR1 081340Z 01007KT M02/M07 A3032 RMK A01 T10211069  RH  069%=      5-min Rain = 0
KFR1 081341Z 02009KT M02/M07 A3032 RMK A01 T10211070  RH  069%=      5-min Rain = 0
KFR1 081342Z 02009KT M02/M07 A3032 RMK A01 T10221071  RH  069%=      5-min Rain = 0
KFR1 081343Z 02008KT M02/M07 A3032 RMK A01 T10221071  RH  069%=      5-min Rain = 0
KFR1 081344Z 03008KT M02/M07 A3032 RMK A01 T10221072  RH  069%=      5-min Rain = 0
KFR1 081345Z 03007KT M02/M07 A3032 RMK A01 T10221071  RH  069%=      5-min Rain = 0
KFR1 081346Z 02006KT M02/M07 A3032 RMK A01 T10221071  RH  069%=      5-min Rain = 0
KFR1 081347Z 03005KT M02/M07 A3032 RMK A01 T10231070  RH  070%=      5-min Rain = 0
KFR1 081348Z 02005KT M02/M07 A3032 RMK A01 T10231070  RH  070%=      5-min Rain = 0
KFR1 081349Z 03005KT M02/M07 A3032 RMK A01 T10231070  RH  070%=      5-min Rain = 0
KFR1 081350Z 03006KT M02/M07 A3032 RMK A01 T10241071  RH  070%=      5-min Rain = 0
KFR1 081351Z 02008KT M02/M07 A3032 RMK A01 T10241070  RH  070%=      5-min Rain = 0
KFR1 081352Z 01005KT M02/M07 A3032 RMK A01 T10231070  RH  070%=      5-min Rain = 0
KFR1 081353Z 03007KT M02/M07 A3032 RMK A01 T10241071  RH  070%=      5-min Rain = 0
KFR1 081354Z 03006KT M02/M07 A3032 RMK A01 T10241071  RH  070%=      5-min Rain = 0
KFR1 081355Z 03008KT M02/M07 A3032 RMK A01 T10241071  RH  070%=      5-min Rain = 0
KFR1 081356Z 03008KT M03/M07 A3032 RMK A01 T10251072  RH  070%=      5-min Rain = 0
KFR1 081357Z 03006KT M03/M07 A3032 RMK A01 T10251072  RH  070%=      5-min Rain = 0
KFR1 081358Z 04007KT M03/M07 A3032 RMK A01 T10251072  RH  070%=      5-min Rain = 0
KFR1 081359Z 04007KT M03/M07 A3032 RMK A01 T10251073  RH  070%=      5-min Rain = 0
KFR1 081400Z 04007KT M03/M07 A3032 RMK A01 T10251073  RH  070%=      5-min Rain = 0
KFR1 081401Z 03006KT M03/M07 A3032 RMK A01 T10261074  RH  070%=      5-min Rain = 0
KFR1 081402Z 02007KT M03/M07 A3032 RMK A01 T10251073  RH  070%=      5-min Rain = 0
KFR1 081403Z 03008KT M03/M07 A3032 RMK A01 T10261073  RH  070%=      5-min Rain = 0
KFR1 081404Z 03007KT M03/M07 A3032 RMK A01 T10261074  RH  070%=      5-min Rain = 0
KFR1 081405Z 03007KT M03/M07 A3032 RMK A01 T10261074  RH  070%=      5-min Rain = 0
KFR1 081406Z 03007KT M03/M07 A3032 RMK A01 T10261074  RH  069%=      5-min Rain = 0
KFR1 081407Z 03008KT M03/M08 A3032 RMK A01 T10261075  RH  069%=      5-min Rain = 0
KFR1 081408Z 03008KT M03/M08 A3032 RMK A01 T10261076  RH  068%=      5-min Rain = 0
KFR1 081409Z 03009KT M03/M08 A3032 RMK A01 T10261077  RH  068%=      5-min Rain = 0
KFR1 081410Z 04008KT M03/M08 A3032 RMK A01 T10271078  RH  068%=      5-min Rain = 0
KFR1 081411Z 04008KT M03/M08 A3032 RMK A01 T10271078  RH  068%=      5-min Rain = 0
KFR1 081412Z 04008KT M03/M08 A3032 RMK A01 T10271078  RH  068%=      5-min Rain = 0
KFR1 081413Z 04008KT M03/M08 A3032 RMK A01 T10271077  RH  068%=      5-min Rain = 0
KFR1 081414Z 04007KT M03/M08 A3032 RMK A01 T10271077  RH  069%=      5-min Rain = 0
KFR1 081415Z 04007KT M03/M08 A3032 RMK A01 T10271076  RH  069%=      5-min Rain = 0
KFR1 081416Z 03006KT M03/M08 A3032 RMK A01 T10261075  RH  069%=      5-min Rain = 0
KFR1 081417Z 04006KT M03/M08 A3032 RMK A01 T10271075  RH  070%=      5-min Rain = 0
KFR1 081418Z 03004KT M03/M08 A3032 RMK A01 T10271075  RH  069%=      5-min Rain = 0
KFR1 081419Z 03004KT M03/M07 A3032 RMK A01 T10261074  RH  070%=      5-min Rain = 0
KFR1 081420Z 03004KT M03/M07 A3032 RMK A01 T10261073  RH  070%=      5-min Rain = 0
KFR1 081421Z 03004KT M03/M07 A3032 RMK A01 T10261073  RH  070%=      5-min Rain = 0
KFR1 081422Z 03004KT M03/M07 A3032 RMK A01 T10261072  RH  071%=      5-min Rain = 0
KFR1 081423Z 03006KT M03/M07 A3032 RMK A01 T10261072  RH  070%=      5-min Rain = 0
KFR1 081424Z 04004KT M03/M07 A3032 RMK A01 T10261073  RH  070%=      5-min Rain = 0
KFR1 081425Z 03005KT M03/M07 A3032 RMK A01 T10261072  RH  071%=      5-min Rain = 0
KFR1 081426Z 02006KT M03/M07 A3032 RMK A01 T10251071  RH  071%=      5-min Rain = 0
KFR1 081427Z 03005KT M03/M07 A3032 RMK A01 T10261071  RH  071%=      5-min Rain = 0
KFR1 081428Z 03005KT M03/M07 A3032 RMK A01 T10261070  RH  071%=      5-min Rain = 0
KFR1 081429Z 04004KT M03/M07 A3033 RMK A01 T10261070  RH  071%=      5-min Rain = 0
KFR1 081430Z 03006KT M03/M07 A3033 RMK A01 T10251070  RH  071%=      5-min Rain = 0
KFR1 081431Z 03005KT M03/M07 A3033 RMK A01 T10251071  RH  071%=      5-min Rain = 0
KFR1 081432Z 03005KT M03/M07 A3033 RMK A01 T10251071  RH  071%=      5-min Rain = 0
KFR1 081433Z 04004KT M03/M07 A3033 RMK A01 T10251071  RH  071%=      5-min Rain = 0
KFR1 081434Z 04005KT M03/M07 A3033 RMK A01 T10251071  RH  071%=      5-min Rain = 0
KFR1 081435Z 03005KT M03/M07 A3032 RMK A01 T10251072  RH  070%=      5-min Rain = 0
KFR1 081436Z 03005KT M02/M07 A3032 RMK A01 T10241072  RH  070%=      5-min Rain = 0
KFR1 081437Z 03006KT M02/M07 A3032 RMK A01 T10241072  RH  070%=      5-min Rain = 0
KFR1 081438Z 04005KT M02/M07 A3032 RMK A01 T10241072  RH  070%=      5-min Rain = 0
KFR1 081439Z 04006KT M02/M07 A3032 RMK A01 T10241073  RH  069%=      5-min Rain = 0
KFR1 081440Z 03006KT M02/M07 A3033 RMK A01 T10241074  RH  069%=      5-min Rain = 0
KFR1 081441Z 03005KT M02/M07 A3033 RMK A01 T10241074  RH  069%=      5-min Rain = 0
KFR1 081442Z 04006KT M02/M07 A3033 RMK A01 T10241074  RH  068%=      5-min Rain = 0
KFR1 081443Z 05005KT M02/M07 A3033 RMK A01 T10241074  RH  068%=      5-min Rain = 0
KFR1 081444Z 04006KT M02/M08 A3033 RMK A01 T10241076  RH  067%=      5-min Rain = 0
KFR1 081445Z 04006KT M02/M08 A3033 RMK A01 T10241076  RH  068%=      5-min Rain = 0
KFR1 081446Z 04006KT M02/M08 A3033 RMK A01 T10241075  RH  068%=      5-min Rain = 0
KFR1 081447Z 03005KT M02/M08 A3033 RMK A01 T10241075  RH  068%=      5-min Rain = 0
KFR1 081448Z 04005KT M02/M08 A3033 RMK A01 T10231075  RH  068%=      5-min Rain = 0
KFR1 081449Z 03005KT M02/M08 A3033 RMK A01 T10231076  RH  067%=      5-min Rain = 0
KFR1 081450Z 03007KT M02/M08 A3033 RMK A01 T10231076  RH  067%=      5-min Rain = 0
KFR1 081451Z 03005KT M02/M08 A3033 RMK A01 T10241077  RH  067%=      5-min Rain = 0
KFR1 081452Z 03006KT M02/M08 A3033 RMK A01 T10241077  RH  067%=      5-min Rain = 0
KFR1 081453Z 03007KT M02/M08 A3033 RMK A01 T10241078  RH  067%=      5-min Rain = 0
KFR1 081454Z 03006KT M02/M08 A3033 RMK A01 T10241078  RH  066%=      5-min Rain = 0
KFR1 081455Z 03006KT M02/M08 A3033 RMK A01 T10241079  RH  066%=      5-min Rain = 0
KFR1 081456Z 03005KT M02/M08 A3033 RMK A01 T10241079  RH  066%=      5-min Rain = 0
KFR1 081457Z 02005KT M02/M08 A3033 RMK A01 T10241079  RH  066%=      5-min Rain = 0
KFR1 081458Z 04005KT M02/M08 A3033 RMK A01 T10241078  RH  066%=      5-min Rain = 0
KFR1 081459Z 04006KT M02/M08 A3033 RMK A01 T10231078  RH  066%=      5-min Rain = 0
KFR1 081500Z 04006KT M02/M08 A3033 RMK A01 T10231079  RH  066%=      5-min Rain = 0
KFR1 081501Z 03005KT M02/M08 A3033 RMK A01 T10231079  RH  066%=      5-min Rain = 0
KFR1 081502Z 04007KT M02/M08 A3033 RMK A01 T10231079  RH  065%=      5-min Rain = 0
KFR1 081503Z 03007KT M02/M08 A3033 RMK A01 T10231080  RH  065%=      5-min Rain = 0
KFR1 081504Z 03005KT M02/M08 A3033 RMK A01 T10221081  RH  064%=      5-min Rain = 0
KFR1 081505Z 03005KT M02/M08 A3033 RMK A01 T10231081  RH  065%=      5-min Rain = 0
KFR1 081506Z 03005KT M02/M08 A3033 RMK A01 T10221080  RH  065%=      5-min Rain = 0
KFR1 081507Z 03005KT M02/M08 A3033 RMK A01 T10221079  RH  065%=      5-min Rain = 0
KFR1 081508Z 02006KT M02/M08 A3033 RMK A01 T10221079  RH  065%=      5-min Rain = 0
KFR1 081509Z 04006KT M02/M08 A3033 RMK A01 T10221079  RH  065%=      5-min Rain = 0
KFR1 081510Z 03006KT M02/M08 A3033 RMK A01 T10221080  RH  064%=      5-min Rain = 0
KFR1 081511Z 04006KT M02/M08 A3033 RMK A01 T10221081  RH  064%=      5-min Rain = 0
KFR1 081512Z 03007KT M02/M08 A3033 RMK A01 T10221083  RH  063%=      5-min Rain = 0
KFR1 081513Z 04007KT M02/M09 A3033 RMK A01 T10221085  RH  062%=      5-min Rain = 0
KFR1 081514Z 04008KT M02/M08 A3033 RMK A01 T10221084  RH  062%=      5-min Rain = 0
KFR1 081515Z 05009KT M02/M09 A3033 RMK A01 T10221085  RH  062%=      5-min Rain = 0
KFR1 081516Z 05007KT M02/M09 A3033 RMK A01 T10221087  RH  061%=      5-min Rain = 0
KFR1 081517Z 05008KT M02/M09 A3033 RMK A01 T10221086  RH  061%=      5-min Rain = 0
KFR1 081518Z 04007KT M02/M09 A3033 RMK A01 T10221087  RH  061%=      5-min Rain = 0
KFR1 081519Z 04009KT M02/M09 A3033 RMK A01 T10221086  RH  061%=      5-min Rain = 0
KFR1 081520Z 04008KT M02/M09 A3033 RMK A01 T10211087  RH  061%=      5-min Rain = 0
KFR1 081521Z 04007KT M02/M09 A3033 RMK A01 T10211086  RH  061%=      5-min Rain = 0
KFR1 081522Z 04007KT M02/M09 A3033 RMK A01 T10211086  RH  061%=      5-min Rain = 0
KFR1 081523Z 04006KT M02/M09 A3033 RMK A01 T10211085  RH  061%=      5-min Rain = 0
KFR1 081524Z 05006KT M02/M08 A3033 RMK A01 T10201084  RH  062%=      5-min Rain = 0
KFR1 081525Z 06006KT M02/M08 A3033 RMK A01 T10201084  RH  061%=      5-min Rain = 0
KFR1 081526Z 06005KT M02/M09 A3033 RMK A01 T10211086  RH  061%=      5-min Rain = 0
KFR1 081527Z 06006KT M02/M09 A3033 RMK A01 T10211086  RH  061%=      5-min Rain = 0
KFR1 081528Z 06006KT M02/M09 A3033 RMK A01 T10211085  RH  061%=      5-min Rain = 0
KFR1 081529Z 05007KT M02/M08 A3033 RMK A01 T10201084  RH  061%=      5-min Rain = 0
KFR1 081530Z 06006KT M02/M08 A3033 RMK A01 T10191084  RH  061%=      5-min Rain = 0
KFR1 081531Z 05007KT M02/M09 A3033 RMK A01 T10201086  RH  061%=      5-min Rain = 0
KFR1 081532Z 05006KT M02/M09 A3033 RMK A01 T10211087  RH  060%=      5-min Rain = 0
KFR1 081533Z 05006KT M02/M09 A3033 RMK A01 T10211087  RH  060%=      5-min Rain = 0
KFR1 081534Z 04006KT M02/M09 A3033 RMK A01 T10201086  RH  061%=      5-min Rain = 0
KFR1 081535Z 03006KT M02/M09 A3033 RMK A01 T10201088  RH  060%=      5-min Rain = 0
KFR1 081536Z 04006KT M02/M09 A3033 RMK A01 T10201089  RH  059%=      5-min Rain = 0
KFR1 081537Z 05007KT M02/M09 A3033 RMK A01 T10191091  RH  058%=      5-min Rain = 0
KFR1 081538Z 05006KT M02/M10 A3033 RMK A01 T10201095  RH  056%=      5-min Rain = 0
KFR1 081539Z 04006KT M02/M10 A3033 RMK A01 T10201096  RH  056%=      5-min Rain = 0
KFR1 081540Z 04005KT M02/M10 A3033 RMK A01 T10191096  RH  056%=      5-min Rain = 0
KFR1 081541Z 05004KT M02/M10 A3033 RMK A01 T10181095  RH  055%=      5-min Rain = 0
KFR1 081542Z 04006KT M02/M10 A3033 RMK A01 T10171096  RH  055%=      5-min Rain = 0
KFR1 081543Z 04005KT M02/M10 A3033 RMK A01 T10181099  RH  054%=      5-min Rain = 0
KFR1 081544Z 03004KT M02/M10 A3033 RMK A01 T10191097  RH  055%=      5-min Rain = 0
KFR1 081545Z 03004KT M02/M10 A3033 RMK A01 T10181095  RH  056%=      5-min Rain = 0
KFR1 081546Z 02003KT M02/M09 A3033 RMK A01 T10171093  RH  056%=      5-min Rain = 0
KFR1 081547Z 02003KT M02/M09 A3034 RMK A01 T10161092  RH  056%=      5-min Rain = 0
KFR1 081548Z 02003KT M02/M09 A3034 RMK A01 T10161092  RH  056%=      5-min Rain = 0
KFR1 081549Z 04004KT M02/M09 A3034 RMK A01 T10151091  RH  056%=      5-min Rain = 0
KFR1 081550Z 04005KT M02/M09 A3034 RMK A01 T10151090  RH  056%=      5-min Rain = 0
KFR1 081551Z 04005KT M02/M09 A3033 RMK A01 T10151091  RH  056%=      5-min Rain = 0
KFR1 081552Z 04003KT M02/M09 A3033 RMK A01 T10161092  RH  056%=      5-min Rain = 0
KFR1 081553Z 04003KT M02/M09 A3033 RMK A01 T10161092  RH  056%=      5-min Rain = 0
KFR1 081554Z 03002KT M02/M09 A3033 RMK A01 T10171091  RH  057%=      5-min Rain = 0
KFR1 081555Z 04003KT M02/M09 A3033 RMK A01 T10161089  RH  057%=      5-min Rain = 0
KFR1 081556Z 04004KT M02/M09 A3033 RMK A01 T10151089  RH  057%=      5-min Rain = 0
KFR1 081557Z 05003KT M01/M09 A3033 RMK A01 T10141090  RH  056%=      5-min Rain = 0
KFR1 081558Z 06005KT M01/M09 A3033 RMK A01 T10131091  RH  055%=      5-min Rain = 0
KFR1 081559Z 06005KT M01/M10 A3034 RMK A01 T10141095  RH  054%=      5-min Rain = 0
KFR1 081600Z 06004KT M02/M10 A3034 RMK A01 T10151098  RH  053%=      5-min Rain = 0
KFR1 081601Z 05004KT M02/M10 A3034 RMK A01 T10151097  RH  054%=      5-min Rain = 0
KFR1 081602Z 05004KT M01/M09 A3034 RMK A01 T10131094  RH  054%=      5-min Rain = 0
KFR1 081603Z 05003KT M01/M10 A3034 RMK A01 T10121095  RH  054%=      5-min Rain = 0
KFR1 081604Z 06004KT M01/M10 A3034 RMK A01 T10121095  RH  053%=      5-min Rain = 0
KFR1 081605Z 06004KT M01/M10 A3034 RMK A01 T10131096  RH  053%=      5-min Rain = 0
KFR1 081606Z 05004KT M01/M10 A3034 RMK A01 T10141097  RH  053%=      5-min Rain = 0
KFR1 081607Z 05003KT M01/M10 A3034 RMK A01 T10141097  RH  053%=      5-min Rain = 0
KFR1 081608Z 03004KT M01/M10 A3034 RMK A01 T10131097  RH  053%=      5-min Rain = 0
KFR1 081609Z 04003KT M01/M10 A3034 RMK A01 T10131096  RH  053%=      5-min Rain = 0
KFR1 081610Z 02002KT M01/M10 A3034 RMK A01 T10131098  RH  053%=      5-min Rain = 0
KFR1 081611Z 04003KT M01/M10 A3034 RMK A01 T10131097  RH  053%=      5-min Rain = 0
KFR1 081612Z 03002KT M01/M10 A3034 RMK A01 T10131097  RH  053%=      5-min Rain = 0
KFR1 081613Z 04001KT M01/M10 A3034 RMK A01 T10131096  RH  053%=      5-min Rain = 0
KFR1 081614Z 00002KT M01/M09 A3034 RMK A01 T10121093  RH  054%=      5-min Rain = 0
KFR1 081615Z 00003KT M01/M09 A3034 RMK A01 T10101090  RH  055%=      5-min Rain = 0
KFR1 081616Z 35002KT M01/M09 A3034 RMK A01 T10091089  RH  055%=      5-min Rain = 0
KFR1 081617Z 33000KT M01/M09 A3034 RMK A01 T10081090  RH  054%=      5-min Rain = 0
KFR1 081618Z 35001KT M01/M09 A3034 RMK A01 T10071088  RH  054%=      5-min Rain = 0
KFR1 081619Z 01002KT M00/M09 A3034 RMK A01 T10041087  RH  054%=      5-min Rain = 0
KFR1 081620Z 00003KT M00/M09 A3034 RMK A01 T10041090  RH  052%=      5-min Rain = 0
KFR1 081621Z 36002KT M01/M09 A3034 RMK A01 T10051090  RH  053%=      5-min Rain = 0
KFR1 081622Z 01003KT M01/M09 A3034 RMK A01 T10061089  RH  053%=      5-min Rain = 0
KFR1 081623Z 36003KT M00/M09 A3034 RMK A01 T10041088  RH  053%=      5-min Rain = 0
KFR1 081624Z 00002KT M01/M09 A3034 RMK A01 T10051091  RH  052%=      5-min Rain = 0
KFR1 081625Z 02003KT M01/M09 A3034 RMK A01 T10071092  RH  053%=      5-min Rain = 0
KFR1 081626Z 36004KT M01/M09 A3034 RMK A01 T10071091  RH  053%=      5-min Rain = 0
KFR1 081627Z 00002KT M01/M09 A3034 RMK A01 T10071090  RH  053%=      5-min Rain = 0
KFR1 081628Z 02004KT M01/M09 A3034 RMK A01 T10061089  RH  053%=      5-min Rain = 0
KFR1 081629Z 36003KT M01/M09 A3034 RMK A01 T10051089  RH  053%=      5-min Rain = 0
KFR1 081630Z 01005KT M00/M09 A3034 RMK A01 T10041087  RH  053%=      5-min Rain = 0
KFR1 081631Z 04002KT M01/M09 A3034 RMK A01 T10051091  RH  052%=      5-min Rain = 0
KFR1 081632Z 02001KT M01/M09 A3034 RMK A01 T10061091  RH  053%=      5-min Rain = 0
KFR1 081633Z 33001KT M00/M09 A3034 RMK A01 T10041088  RH  053%=      5-min Rain = 0
KFR1 081634Z 35004KT M00/M09 A3034 RMK A01 T10031087  RH  053%=      5-min Rain = 0
KFR1 081635Z 35005KT M00/M09 A3034 RMK A01 T10031086  RH  054%=      5-min Rain = 0
KFR1 081636Z 36003KT M00/M09 A3034 RMK A01 T10041086  RH  054%=      5-min Rain = 0
KFR1 081637Z 34004KT M00/M09 A3034 RMK A01 T10041085  RH  054%=      5-min Rain = 0
KFR1 081638Z 33003KT M01/M09 A3034 RMK A01 T10051087  RH  054%=      5-min Rain = 0
KFR1 081639Z 34003KT M01/M09 A3034 RMK A01 T10061088  RH  054%=      5-min Rain = 0
KFR1 081640Z 36003KT M01/M09 A3034 RMK A01 T10071087  RH  055%=      5-min Rain = 0
KFR1 081641Z 01003KT M01/M09 A3034 RMK A01 T10061085  RH  055%=      5-min Rain = 0
KFR1 081642Z 03003KT M01/M08 A3034 RMK A01 T10051084  RH  055%=      5-min Rain = 0
KFR1 081643Z 36003KT M00/M08 A3034 RMK A01 T10031083  RH  055%=      5-min Rain = 0
KFR1 081644Z 33001KT M00/M09 A3034 RMK A01 T10031085  RH  054%=      5-min Rain = 0
KFR1 081645Z 34001KT M00/M08 A3034 RMK A01 T10031084  RH  055%=      5-min Rain = 0
KFR1 081646Z 35002KT M00/M08 A3034 RMK A01 T10031084  RH  054%=      5-min Rain = 0
KFR1 081647Z 35004KT M00/M08 A3034 RMK A01 T10031084  RH  054%=      5-min Rain = 0
KFR1 081648Z 36006KT M00/M08 A3034 RMK A01 T10031082  RH  055%=      5-min Rain = 0
KFR1 081649Z 36004KT M01/M08 A3034 RMK A01 T10051082  RH  056%=      5-min Rain = 0
KFR1 081650Z 01004KT M01/M08 A3034 RMK A01 T10051080  RH  057%=      5-min Rain = 0
KFR1 081651Z 01004KT M00/M08 A3034 RMK A01 T10041080  RH  057%=      5-min Rain = 0
KFR1 081652Z 00004KT M00/M08 A3034 RMK A01 T10041080  RH  056%=      5-min Rain = 0
KFR1 081653Z 35004KT M00/M08 A3034 RMK A01 T10041079  RH  057%=      5-min Rain = 0
KFR1 081654Z 35005KT M00/M08 A3034 RMK A01 T10031078  RH  057%=      5-min Rain = 0
KFR1 081655Z 34004KT M00/M08 A3034 RMK A01 T10041079  RH  057%=      5-min Rain = 0
KFR1 081656Z 33004KT M01/M08 A3034 RMK A01 T10051080  RH  057%=      5-min Rain = 0
KFR1 081657Z 35004KT M01/M08 A3034 RMK A01 T10051079  RH  057%=      5-min Rain = 0
KFR1 081658Z 36002KT M01/M08 A3034 RMK A01 T10061080  RH  057%=      5-min Rain = 0
KFR1 081659Z 00003KT M01/M08 A3034 RMK A01 T10051079  RH  057%=      5-min Rain = 0
KFR1 081700Z 36004KT M01/M08 A3034 RMK A01 T10051079  RH  057%=      5-min Rain = 0
KFR1 081701Z 35003KT M00/M08 A3034 RMK A01 T10041077  RH  058%=      5-min Rain = 0
KFR1 081702Z 35004KT M00/M08 A3034 RMK A01 T10031077  RH  057%=      5-min Rain = 0
KFR1 081703Z 34003KT M00/M08 A3034 RMK A01 T10031078  RH  057%=      5-min Rain = 0
KFR1 081704Z 34003KT M00/M08 A3034 RMK A01 T10031078  RH  057%=      5-min Rain = 0
KFR1 081705Z 01004KT M00/M08 A3034 RMK A01 T10011076  RH  057%=      5-min Rain = 0
KFR1 081706Z 02004KT 00/M08 A3034 RMK A01 T00011076  RH  057%=      5-min Rain = 0
KFR1 081707Z 00004KT 00/M08 A3034 RMK A01 T00011075  RH  056%=      5-min Rain = 0
KFR1 081708Z 36003KT 00/M08 A3034 RMK A01 T00021075  RH  056%=      5-min Rain = 0
KFR1 081709Z 00003KT 00/M08 A3034 RMK A01 T00021077  RH  055%=      5-min Rain = 0
KFR1 081710Z 01004KT 00/M08 A3034 RMK A01 T00021078  RH  055%=      5-min Rain = 0
KFR1 081711Z 02002KT 00/M08 A3034 RMK A01 T00021078  RH  055%=      5-min Rain = 0
KFR1 081712Z 00004KT 00/M08 A3034 RMK A01 T00021078  RH  055%=      5-min Rain = 0
KFR1 081713Z 35004KT 00/M08 A3034 RMK A01 T00021078  RH  055%=      5-min Rain = 0
KFR1 081714Z 36004KT 00/M08 A3033 RMK A01 T00031078  RH  055%=      5-min Rain = 0
KFR1 081715Z 00004KT 01/M08 A3033 RMK A01 T00051077  RH  054%=      5-min Rain = 0
KFR1 081716Z 00004KT 01/M08 A3033 RMK A01 T00051076  RH  054%=      5-min Rain = 0
KFR1 081717Z 01005KT 01/M08 A3033 RMK A01 T00051076  RH  055%=      5-min Rain = 0
KFR1 081718Z 01004KT 01/M08 A3033 RMK A01 T00071077  RH  054%=      5-min Rain = 0
KFR1 081719Z 02004KT 01/M08 A3033 RMK A01 T00071078  RH  053%=      5-min Rain = 0
KFR1 081720Z 02003KT 01/M08 A3033 RMK A01 T00061080  RH  053%=      5-min Rain = 0
KFR1 081721Z 02005KT 01/M08 A3033 RMK A01 T00071078  RH  053%=      5-min Rain = 0
KFR1 081722Z 02004KT 01/M08 A3033 RMK A01 T00081080  RH  052%=      5-min Rain = 0
KFR1 081723Z 35003KT 01/M08 A3033 RMK A01 T00081080  RH  052%=      5-min Rain = 0
KFR1 081724Z 34003KT 01/M08 A3033 RMK A01 T00081080  RH  052%=      5-min Rain = 0
KFR1 081725Z 00003KT 01/M08 A3033 RMK A01 T00091080  RH  051%=      5-min Rain = 0
KFR1 081726Z 03004KT 01/M08 A3033 RMK A01 T00111080  RH  051%=      5-min Rain = 0
KFR1 081727Z 36004KT 01/M08 A3033 RMK A01 T00131082  RH  049%=      5-min Rain = 0
KFR1 081728Z 01005KT 01/M08 A3033 RMK A01 T00141081  RH  049%=      5-min Rain = 0
KFR1 081729Z 36004KT 02/M08 A3033 RMK A01 T00151081  RH  049%=      5-min Rain = 0
KFR1 081730Z 01003KT 02/M08 A3033 RMK A01 T00151081  RH  049%=      5-min Rain = 0
KFR1 081731Z 01004KT 02/M08 A3033 RMK A01 T00161079  RH  050%=      5-min Rain = 0
KFR1 081732Z 35006KT 02/M08 A3033 RMK A01 T00161083  RH  048%=      5-min Rain = 0
KFR1 081733Z 00006KT 02/M08 A3033 RMK A01 T00161084  RH  048%=      5-min Rain = 0
KFR1 081734Z 35006KT 01/M08 A3033 RMK A01 T00141084  RH  048%=      5-min Rain = 0
KFR1 081735Z 36006KT 01/M09 A3033 RMK A01 T00131086  RH  048%=      5-min Rain = 0
KFR1 081736Z 35005KT 01/M09 A3033 RMK A01 T00131087  RH  047%=      5-min Rain = 0
KFR1 081737Z 01005KT 01/M09 A3032 RMK A01 T00131089  RH  047%=      5-min Rain = 0
KFR1 081738Z 02004KT 01/M09 A3032 RMK A01 T00131091  RH  046%=      5-min Rain = 0
KFR1 081739Z 02005KT 01/M09 A3032 RMK A01 T00131091  RH  046%=      5-min Rain = 0
KFR1 081740Z 02004KT 01/M09 A3032 RMK A01 T00131092  RH  045%=      5-min Rain = 0
KFR1 081741Z 02003KT 01/M09 A3032 RMK A01 T00141092  RH  045%=      5-min Rain = 0
KFR1 081742Z 03004KT 02/M09 A3032 RMK A01 T00151090  RH  045%=      5-min Rain = 0
KFR1 081743Z 03007KT 02/M09 A3032 RMK A01 T00191086  RH  046%=      5-min Rain = 0
KFR1 081744Z 06007KT 02/M09 A3032 RMK A01 T00201093  RH  043%=      5-min Rain = 0
KFR1 081745Z 06008KT 02/M10 A3032 RMK A01 T00171098  RH  042%=      5-min Rain = 0
KFR1 081746Z 05006KT 01/M10 A3032 RMK A01 T00131101  RH  042%=      5-min Rain = 0
KFR1 081747Z 06005KT 01/M10 A3032 RMK A01 T00121099  RH  043%=      5-min Rain = 0
KFR1 081748Z 08004KT 01/M10 A3032 RMK A01 T00121098  RH  044%=      5-min Rain = 0
KFR1 081749Z 05005KT 01/M10 A3032 RMK A01 T00131096  RH  044%=      5-min Rain = 0
KFR1 081750Z 04005KT 01/M10 A3032 RMK A01 T00141095  RH  044%=      5-min Rain = 0
KFR1 081751Z 04005KT 01/M10 A3032 RMK A01 T00141095  RH  044%=      5-min Rain = 0
KFR1 081752Z 02004KT 01/M10 A3032 RMK A01 T00131095  RH  044%=      5-min Rain = 0
KFR1 081753Z 36004KT 01/M09 A3032 RMK A01 T00131094  RH  045%=      5-min Rain = 0
KFR1 081754Z 01003KT 01/M10 A3032 RMK A01 T00121095  RH  045%=      5-min Rain = 0
KFR1 081755Z 35004KT 01/M09 A3032 RMK A01 T00141089  RH  046%=      5-min Rain = 0
KFR1 081756Z 35005KT 02/M09 A3032 RMK A01 T00161091  RH  045%=      5-min Rain = 0
KFR1 081757Z 36004KT 02/M09 A3032 RMK A01 T00151092  RH  045%=      5-min Rain = 0
KFR1 081758Z 01005KT 02/M09 A3032 RMK A01 T00151093  RH  044%=      5-min Rain = 0
KFR1 081759Z 36006KT 02/M09 A3032 RMK A01 T00151093  RH  044%=      5-min Rain = 0
KFR1 081800Z 35006KT 01/M10 A3032 RMK A01 T00141095  RH  044%=      5-min Rain = 0
KFR1 081801Z 01005KT 01/M09 A3032 RMK A01 T00141092  RH  045%=      5-min Rain = 0
KFR1 081802Z 01005KT 02/M09 A3032 RMK A01 T00151094  RH  044%=      5-min Rain = 0
KFR1 081803Z 36005KT 02/M10 A3032 RMK A01 T00151096  RH  044%=      5-min Rain = 0
KFR1 081804Z 35004KT 02/M09 A3032 RMK A01 T00151094  RH  044%=      5-min Rain = 0
KFR1 081805Z 01005KT 02/M09 A3032 RMK A01 T00161094  RH  044%=      5-min Rain = 0
KFR1 081806Z 01006KT 02/M09 A3032 RMK A01 T00171092  RH  044%=      5-min Rain = 0
KFR1 081807Z 01005KT 02/M09 A3032 RMK A01 T00181092  RH  044%=      5-min Rain = 0
KFR1 081808Z 01006KT 02/M09 A3032 RMK A01 T00191091  RH  044%=      5-min Rain = 0
KFR1 081809Z 01006KT 02/M09 A3032 RMK A01 T00171094  RH  043%=      5-min Rain = 0
KFR1 081810Z 01006KT 02/M10 A3032 RMK A01 T00161096  RH  043%=      5-min Rain = 0
KFR1 081811Z 00006KT 02/M10 A3032 RMK A01 T00151095  RH  044%=      5-min Rain = 0
KFR1 081812Z 00005KT 01/M09 A3032 RMK A01 T00141094  RH  044%=      5-min Rain = 0
KFR1 081813Z 01005KT 02/M09 A3032 RMK A01 T00151094  RH  044%=      5-min Rain = 0
KFR1 081814Z 01006KT 02/M10 A3032 RMK A01 T00161097  RH  043%=      5-min Rain = 0
KFR1 081815Z 01005KT 02/M10 A3032 RMK A01 T00161097  RH  043%=      5-min Rain = 0
KFR1 081816Z 00007KT 02/M10 A3032 RMK A01 T00171096  RH  043%=      5-min Rain = 0
KFR1 081817Z 36007KT 02/M10 A3032 RMK A01 T00181095  RH  043%=      5-min Rain = 0
KFR1 081818Z 36008KT 02/M10 A3032 RMK A01 T00161095  RH  043%=      5-min Rain = 0
KFR1 081819Z 00007KT 01/M10 A3032 RMK A01 T00141095  RH  044%=      5-min Rain = 0
KFR1 081820Z 00006KT 02/M09 A3032 RMK A01 T00151093  RH  044%=      5-min Rain = 0
KFR1 081821Z 01006KT 02/M09 A3032 RMK A01 T00161093  RH  044%=      5-min Rain = 0
KFR1 081822Z 01005KT 02/M09 A3032 RMK A01 T00171094  RH  043%=      5-min Rain = 0
KFR1 081823Z 00007KT 02/M10 A3032 RMK A01 T00171095  RH  043%=      5-min Rain = 0
KFR1 081824Z 01006KT 02/M10 A3032 RMK A01 T00171095  RH  043%=      5-min Rain = 0
KFR1 081825Z 01005KT 02/M09 A3032 RMK A01 T00181093  RH  044%=      5-min Rain = 0
KFR1 081826Z 36006KT 02/M09 A3032 RMK A01 T00221089  RH  044%=      5-min Rain = 0
KFR1 081827Z 35006KT 02/M09 A3032 RMK A01 T00241088  RH  043%=      5-min Rain = 0
KFR1 081828Z 01006KT 02/M09 A3032 RMK A01 T00241090  RH  043%=      5-min Rain = 0
KFR1 081829Z 36006KT 03/M09 A3031 RMK A01 T00251091  RH  042%=      5-min Rain = 0
KFR1 081830Z 36006KT 02/M09 A3031 RMK A01 T00241094  RH  041%=      5-min Rain = 0
KFR1 081831Z 36005KT 02/M09 A3031 RMK A01 T00231094  RH  042%=      5-min Rain = 0
KFR1 081832Z 02006KT 02/M09 A3031 RMK A01 T00231093  RH  042%=      5-min Rain = 0
KFR1 081833Z 01005KT 02/M09 A3031 RMK A01 T00221094  RH  042%=      5-min Rain = 0
KFR1 081834Z 01004KT 02/M09 A3031 RMK A01 T00211093  RH  043%=      5-min Rain = 0
KFR1 081835Z 02004KT 02/M09 A3031 RMK A01 T00231090  RH  043%=      5-min Rain = 0
KFR1 081836Z 02005KT 03/M09 A3031 RMK A01 T00261086  RH  043%=      5-min Rain = 0
KFR1 081837Z 01005KT 03/M09 A3031 RMK A01 T00281088  RH  042%=      5-min Rain = 0
KFR1 081838Z 35004KT 03/M09 A3031 RMK A01 T00281088  RH  042%=      5-min Rain = 0
KFR1 081839Z 35004KT 03/M09 A3031 RMK A01 T00291089  RH  042%=      5-min Rain = 0
KFR1 081840Z 36005KT 03/M09 A3031 RMK A01 T00291087  RH  042%=      5-min Rain = 0
KFR1 081841Z 00006KT 03/M08 A3031 RMK A01 T00341081  RH  043%=      5-min Rain = 0
KFR1 081842Z 34005KT 03/M08 A303 RMK A01 T00321083  RH  043%=      5-min Rain = 0
KFR1 081843Z 01006KT 03/M08 A303 RMK A01 T00311084  RH  043%=      5-min Rain = 0
KFR1 081844Z 01007KT 03/M09 A303 RMK A01 T00311085  RH  042%=      5-min Rain = 0
KFR1 081845Z 01006KT 03/M08 A303 RMK A01 T00321084  RH  042%=      5-min Rain = 0
KFR1 081846Z 01005KT 03/M08 A303 RMK A01 T00311084  RH  043%=      5-min Rain = 0
KFR1 081847Z 01006KT 03/M09 A303 RMK A01 T00321086  RH  042%=      5-min Rain = 0
KFR1 081848Z 36007KT 03/M09 A303 RMK A01 T00291088  RH  042%=      5-min Rain = 0
KFR1 081849Z 35005KT 03/M09 A303 RMK A01 T00271087  RH  043%=      5-min Rain = 0
KFR1 081850Z 35006KT 03/M09 A303 RMK A01 T00261086  RH  043%=      5-min Rain = 0
KFR1 081851Z 35006KT 03/M09 A303 RMK A01 T00261086  RH  044%=      5-min Rain = 0
KFR1 081852Z 35006KT 03/M09 A303 RMK A01 T00261088  RH  043%=      5-min Rain = 0
KFR1 081853Z 35006KT 03/M09 A303 RMK A01 T00271087  RH  043%=      5-min Rain = 0
KFR1 081854Z 36005KT 03/M09 A303 RMK A01 T00271087  RH  043%=      5-min Rain = 0
KFR1 081855Z 35005KT 03/M09 A303 RMK A01 T00281086  RH  043%=      5-min Rain = 0
KFR1 081856Z 35004KT 03/M09 A303 RMK A01 T00261085  RH  044%=      5-min Rain = 0
KFR1 081857Z 35004KT 03/M08 A303 RMK A01 T00271083  RH  044%=      5-min Rain = 0
KFR1 081858Z 34005KT 03/M08 A303 RMK A01 T00281083  RH  044%=      5-min Rain = 0
KFR1 081859Z 35005KT 03/M08 A303 RMK A01 T00281081  RH  044%=      5-min Rain = 0
KFR1 081900Z 35005KT 03/M08 A303 RMK A01 T00291080  RH  045%=      5-min Rain = 0
KFR1 081901Z 35006KT 03/M08 A303 RMK A01 T00301081  RH  044%=      5-min Rain = 0
KFR1 081902Z 35005KT 03/M08 A303 RMK A01 T00271083  RH  044%=      5-min Rain = 0
KFR1 081903Z 36005KT 03/M08 A303 RMK A01 T00271082  RH  045%=      5-min Rain = 0
KFR1 081904Z 00006KT 03/M08 A303 RMK A01 T00301080  RH  044%=      5-min Rain = 0
KFR1 081905Z 34005KT 03/M08 A303 RMK A01 T00281083  RH  044%=      5-min Rain = 0
KFR1 081906Z 35005KT 03/M08 A303 RMK A01 T00251084  RH  045%=      5-min Rain = 0
KFR1 081907Z 35003KT 02/M08 A3029 RMK A01 T00241083  RH  045%=      5-min Rain = 0
KFR1 081908Z 35004KT 03/M08 A3029 RMK A01 T00261081  RH  045%=      5-min Rain = 0
KFR1 081909Z 35004KT 03/M08 A3029 RMK A01 T00261082  RH  045%=      5-min Rain = 0
KFR1 081910Z 33003KT 03/M08 A3029 RMK A01 T00261083  RH  044%=      5-min Rain = 0
KFR1 081911Z 36004KT 03/M08 A3029 RMK A01 T00271080  RH  045%=      5-min Rain = 0
KFR1 081912Z 35004KT 03/M08 A3029 RMK A01 T00311076  RH  045%=      5-min Rain = 0
KFR1 081913Z 01004KT 03/M07 A3029 RMK A01 T00331073  RH  046%=      5-min Rain = 0
KFR1 081914Z 01005KT 03/M07 A3029 RMK A01 T00311066  RH  049%=      5-min Rain = 0
KFR1 081915Z 02005KT 03/M07 A3029 RMK A01 T00291067  RH  049%=      5-min Rain = 0
KFR1 081916Z 05004KT 03/M07 A3029 RMK A01 T00281073  RH  047%=      5-min Rain = 0
KFR1 081917Z 01003KT 03/M07 A3029 RMK A01 T00281074  RH  047%=      5-min Rain = 0
KFR1 081918Z 01002KT 03/M07 A3029 RMK A01 T00301066  RH  049%=      5-min Rain = 0
KFR1 081919Z 05005KT 03/M07 A3029 RMK A01 T00311068  RH  048%=      5-min Rain = 0
KFR1 081920Z 05006KT 03/M08 A3029 RMK A01 T00291076  RH  046%=      5-min Rain = 0
KFR1 081921Z 04004KT 03/M07 A3029 RMK A01 T00291074  RH  047%=      5-min Rain = 0
KFR1 081922Z 05002KT 03/M07 A3029 RMK A01 T00281073  RH  047%=      5-min Rain = 0
KFR1 081923Z 09001KT 03/M07 A3029 RMK A01 T00281072  RH  048%=      5-min Rain = 0
KFR1 081924Z 13000KT 03/M07 A3029 RMK A01 T00281072  RH  048%=      5-min Rain = 0
KFR1 081925Z 04002KT 03/M07 A3029 RMK A01 T00291072  RH  047%=      5-min Rain = 0
KFR1 081926Z 35004KT 03/M07 A3028 RMK A01 T00311068  RH  048%=      5-min Rain = 0
KFR1 081927Z 01003KT 03/M07 A3028 RMK A01 T00311067  RH  048%=      5-min Rain = 0
KFR1 081928Z 02004KT 03/M06 A3028 RMK A01 T00331064  RH  049%=      5-min Rain = 0
KFR1 081929Z 01006KT 03/M07 A3028 RMK A01 T00341068  RH  047%=      5-min Rain = 0
KFR1 081930Z 01005KT 03/M07 A3028 RMK A01 T00311073  RH  046%=      5-min Rain = 0
KFR1 081931Z 01004KT 03/M08 A3028 RMK A01 T00301078  RH  045%=      5-min Rain = 0
KFR1 081932Z 35002KT 03/M08 A3028 RMK A01 T00291084  RH  043%=      5-min Rain = 0
KFR1 081933Z 34000KT 03/M09 A3028 RMK A01 T00291087  RH  042%=      5-min Rain = 0
KFR1 081934Z 35003KT 03/M08 A3028 RMK A01 T00301084  RH  043%=      5-min Rain = 0
KFR1 081935Z 34004KT 03/M08 A3028 RMK A01 T00301075  RH  046%=      5-min Rain = 0
KFR1 081936Z 36005KT 03/M07 A3028 RMK A01 T00301069  RH  048%=      5-min Rain = 0
KFR1 081937Z 00004KT 03/M07 A3028 RMK A01 T00311070  RH  048%=      5-min Rain = 0
KFR1 081938Z 35002KT 03/M07 A3028 RMK A01 T00311070  RH  047%=      5-min Rain = 0
KFR1 081939Z 29001KT 03/M07 A3028 RMK A01 T00321073  RH  046%=      5-min Rain = 0
KFR1 081940Z 00003KT 03/M07 A3028 RMK A01 T00331073  RH  046%=      5-min Rain = 0
KFR1 081941Z 01004KT 03/M07 A3028 RMK A01 T00331071  RH  046%=      5-min Rain = 0
KFR1 081942Z 00004KT 03/M07 A3028 RMK A01 T00331072  RH  046%=      5-min Rain = 0
KFR1 081943Z 00004KT 03/M08 A3027 RMK A01 T00301077  RH  045%=      5-min Rain = 0
KFR1 081944Z 33003KT 03/M08 A3027 RMK A01 T00301077  RH  045%=      5-min Rain = 0
KFR1 081945Z 35004KT 03/M08 A3027 RMK A01 T00341075  RH  045%=      5-min Rain = 0
KFR1 081946Z 01006KT 04/M08 A3027 RMK A01 T00371077  RH  043%=      5-min Rain = 0
KFR1 081947Z 03007KT 04/M08 A3027 RMK A01 T00371080  RH  042%=      5-min Rain = 0
KFR1 081948Z 03007KT 04/M08 A3027 RMK A01 T00361081  RH  042%=      5-min Rain = 0
KFR1 081949Z 04006KT 04/M08 A3027 RMK A01 T00351083  RH  042%=      5-min Rain = 0
KFR1 081950Z 03005KT 03/M09 A3027 RMK A01 T00331085  RH  042%=      5-min Rain = 0
KFR1 081951Z 04004KT 03/M09 A3027 RMK A01 T00321087  RH  041%=      5-min Rain = 0
KFR1 081952Z 04001KT 03/M09 A3027 RMK A01 T00321089  RH  041%=      5-min Rain = 0
KFR1 081953Z 01002KT 03/M09 A3027 RMK A01 T00311089  RH  041%=      5-min Rain = 0
KFR1 081954Z 07003KT 03/M09 A3027 RMK A01 T00331087  RH  041%=      5-min Rain = 0
KFR1 081955Z 09004KT 04/M09 A3027 RMK A01 T00351085  RH  041%=      5-min Rain = 0
KFR1 081956Z 10003KT 03/M09 A3027 RMK A01 T00341088  RH  040%=      5-min Rain = 0
KFR1 081957Z 10002KT 03/M09 A3027 RMK A01 T00331087  RH  041%=      5-min Rain = 0
KFR1 081958Z 14001KT 03/M09 A3026 RMK A01 T00341087  RH  041%=      5-min Rain = 0
KFR1 081959Z 11001KT 04/M09 A3026 RMK A01 T00351086  RH  041%=      5-min Rain = 0
KFR1 082000Z 04001KT 04/M08 A3026 RMK A01 T00371084  RH  041%=      5-min Rain = 0
KFR1 082001Z 36004KT 04/M08 A3026 RMK A01 T00391084  RH  040%=      5-min Rain = 0
KFR1 082002Z 34004KT 04/M08 A3026 RMK A01 T00411082  RH  040%=      5-min Rain = 0
KFR1 082003Z 33002KT 04/M08 A3026 RMK A01 T00421082  RH  040%=      5-min Rain = 0
KFR1 082004Z 01003KT 04/M08 A3026 RMK A01 T00411083  RH  040%=      5-min Rain = 0
KFR1 082005Z 02002KT 04/M08 A3026 RMK A01 T00401083  RH  040%=      5-min Rain = 0
KFR1 082006Z 34002KT 04/M08 A3026 RMK A01 T00391084  RH  040%=      5-min Rain = 0
KFR1 082007Z 02002KT 04/M08 A3026 RMK A01 T00391084  RH  040%=      5-min Rain = 0
KFR1 082008Z 01004KT 04/M08 A3026 RMK A01 T00391083  RH  041%=      5-min Rain = 0
KFR1 082009Z 00004KT 04/M08 A3026 RMK A01 T00391083  RH  041%=      5-min Rain = 0
KFR1 082010Z 01004KT 04/M08 A3026 RMK A01 T00381084  RH  041%=      5-min Rain = 0
KFR1 082011Z 03005KT 04/M08 A3026 RMK A01 T00391084  RH  040%=      5-min Rain = 0
KFR1 082012Z 04004KT 04/M08 A3026 RMK A01 T00401082  RH  041%=      5-min Rain = 0
KFR1 082013Z 03006KT 04/M08 A3026 RMK A01 T00431080  RH  040%=      5-min Rain = 0
KFR1 082014Z 03006KT 04/M08 A3026 RMK A01 T00441083  RH  039%=      5-min Rain = 0
KFR1 082015Z 04005KT 04/M08 A3026 RMK A01 T00431084  RH  039%=      5-min Rain = 0
KFR1 082016Z 06003KT 04/M09 A3026 RMK A01 T00421085  RH  039%=      5-min Rain = 0
KFR1 082017Z 07004KT 04/M09 A3026 RMK A01 T00411085  RH  039%=      5-min Rain = 0
KFR1 082018Z 07003KT 04/M08 A3026 RMK A01 T00411084  RH  040%=      5-min Rain = 0
KFR1 082019Z 07002KT 04/M08 A3026 RMK A01 T00441081  RH  040%=      5-min Rain = 0
KFR1 082020Z 06003KT 04/M08 A3026 RMK A01 T00441084  RH  039%=      5-min Rain = 0
KFR1 082021Z 07002KT 04/M09 A3026 RMK A01 T00431086  RH  039%=      5-min Rain = 0
KFR1 082022Z 07003KT 04/M09 A3026 RMK A01 T00421086  RH  039%=      5-min Rain = 0
KFR1 082023Z 07002KT 04/M09 A3026 RMK A01 T00421086  RH  039%=      5-min Rain = 0
KFR1 082024Z 02001KT 04/M08 A3026 RMK A01 T00421084  RH  040%=      5-min Rain = 0
KFR1 082025Z 03001KT 05/M08 A3026 RMK A01 T00451081  RH  039%=      5-min Rain = 0
KFR1 082026Z 01004KT 05/M08 A3025 RMK A01 T00461083  RH  039%=      5-min Rain = 0
KFR1 082027Z 01005KT 04/M08 A3025 RMK A01 T00441084  RH  039%=      5-min Rain = 0
KFR1 082028Z 02004KT 04/M09 A3025 RMK A01 T00411086  RH  039%=      5-min Rain = 0
KFR1 082029Z 01005KT 04/M09 A3025 RMK A01 T00401085  RH  040%=      5-min Rain = 0
KFR1 082030Z 02005KT 04/M09 A3026 RMK A01 T00391086  RH  040%=      5-min Rain = 0
KFR1 082031Z 02005KT 04/M09 A3026 RMK A01 T00381087  RH  040%=      5-min Rain = 0
KFR1 082032Z 03004KT 04/M09 A3026 RMK A01 T00381087  RH  040%=      5-min Rain = 0
KFR1 082033Z 01003KT 04/M09 A3025 RMK A01 T00391085  RH  040%=      5-min Rain = 0
KFR1 082034Z 01003KT 04/M08 A3025 RMK A01 T00411084  RH  039%=      5-min Rain = 0
KFR1 082035Z 03003KT 04/M09 A3025 RMK A01 T00411086  RH  039%=      5-min Rain = 0
KFR1 082036Z 02003KT 04/M09 A3025 RMK A01 T00401087  RH  039%=      5-min Rain = 0
KFR1 082037Z 01003KT 04/M09 A3025 RMK A01 T00391088  RH  039%=      5-min Rain = 0
KFR1 082038Z 34003KT 04/M09 A3025 RMK A01 T00381087  RH  039%=      5-min Rain = 0
KFR1 082039Z 00003KT 04/M09 A3025 RMK A01 T00391085  RH  040%=      5-min Rain = 0
KFR1 082040Z 02003KT 04/M08 A3025 RMK A01 T00411084  RH  040%=      5-min Rain = 0
KFR1 082041Z 01004KT 04/M09 A3025 RMK A01 T00401087  RH  039%=      5-min Rain = 0
KFR1 082042Z 01004KT 04/M08 A3025 RMK A01 T00401084  RH  040%=      5-min Rain = 0
KFR1 082043Z 00003KT 04/M08 A3025 RMK A01 T00411083  RH  040%=      5-min Rain = 0
KFR1 082044Z 00003KT 04/M08 A3025 RMK A01 T00421083  RH  040%=      5-min Rain = 0
KFR1 082045Z 35002KT 04/M09 A3025 RMK A01 T00421085  RH  039%=      5-min Rain = 0
KFR1 082046Z 36002KT 04/M08 A3025 RMK A01 T00401083  RH  040%=      5-min Rain = 0
KFR1 082047Z 36003KT 04/M08 A3025 RMK A01 T00431081  RH  040%=      5-min Rain = 0
KFR1 082048Z 36004KT 04/M08 A3025 RMK A01 T00441082  RH  039%=      5-min Rain = 0
KFR1 082049Z 00005KT 05/M08 A3025 RMK A01 T00451082  RH  039%=      5-min Rain = 0
KFR1 082050Z 35004KT 05/M08 A3025 RMK A01 T00451083  RH  039%=      5-min Rain = 0
KFR1 082051Z 35003KT 04/M09 A3025 RMK A01 T00421087  RH  038%=      5-min Rain = 0
KFR1 082052Z 00003KT 04/M09 A3025 RMK A01 T00401086  RH  039%=      5-min Rain = 0
KFR1 082053Z 00004KT 04/M09 A3025 RMK A01 T00411085  RH  039%=      5-min Rain = 0
KFR1 082054Z 02003KT 04/M09 A3025 RMK A01 T00401086  RH  039%=      5-min Rain = 0
KFR1 082055Z 03003KT 04/M08 A3025 RMK A01 T00401084  RH  040%=      5-min Rain = 0
KFR1 082056Z 04004KT 04/M08 A3025 RMK A01 T00411082  RH  040%=      5-min Rain = 0
KFR1 082057Z 06003KT 05/M08 A3025 RMK A01 T00451081  RH  040%=      5-min Rain = 0
KFR1 082058Z 08003KT 05/M08 A3025 RMK A01 T00461083  RH  039%=      5-min Rain = 0
KFR1 082059Z 10003KT 05/M08 A3025 RMK A01 T00461084  RH  038%=      5-min Rain = 0
KFR1 082100Z 14005KT 05/M09 A3025 RMK A01 T00461086  RH  038%=      5-min Rain = 0
KFR1 082101Z 14002KT 04/M09 A3025 RMK A01 T00441088  RH  038%=      5-min Rain = 0
KFR1 082102Z 06001KT 04/M09 A3025 RMK A01 T00431087  RH  038%=      5-min Rain = 0
KFR1 082103Z 36000KT 04/M09 A3025 RMK A01 T00431086  RH  039%=      5-min Rain = 0
KFR1 082104Z 02000KT 04/M09 A3025 RMK A01 T00431087  RH  038%=      5-min Rain = 0
KFR1 082105Z 06002KT 04/M09 A3025 RMK A01 T00431087  RH  038%=      5-min Rain = 0
KFR1 082106Z 03003KT 04/M08 A3025 RMK A01 T00431084  RH  039%=      5-min Rain = 0
KFR1 082107Z 04004KT 04/M09 A3025 RMK A01 T00421085  RH  039%=      5-min Rain = 0
KFR1 082108Z 08005KT 04/M08 A3025 RMK A01 T00431083  RH  039%=      5-min Rain = 0
KFR1 082109Z 07003KT 04/M09 A3025 RMK A01 T00421085  RH  039%=      5-min Rain = 0
KFR1 082110Z 06002KT 04/M09 A3025 RMK A01 T00411085  RH  039%=      5-min Rain = 0
KFR1 082111Z 07002KT 04/M08 A3025 RMK A01 T00431084  RH  039%=      5-min Rain = 0
KFR1 082112Z 05001KT 04/M08 A3025 RMK A01 T00441083  RH  039%=      5-min Rain = 0
KFR1 082113Z 11001KT 04/M08 A3025 RMK A01 T00441082  RH  039%=      5-min Rain = 0
KFR1 082114Z 08003KT 05/M08 A3025 RMK A01 T00461083  RH  039%=      5-min Rain = 0
KFR1 082115Z 06004KT 05/M08 A3025 RMK A01 T00471082  RH  038%=      5-min Rain = 0
KFR1 082116Z 07005KT 05/M09 A3025 RMK A01 T00461085  RH  038%=      5-min Rain = 0
KFR1 082117Z 07006KT 04/M09 A3025 RMK A01 T00441086  RH  038%=      5-min Rain = 0
KFR1 082118Z 06003KT 04/M09 A3025 RMK A01 T00441085  RH  039%=      5-min Rain = 0
KFR1 082119Z 08002KT 04/M09 A3025 RMK A01 T00431086  RH  039%=      5-min Rain = 0
KFR1 082120Z 07005KT 04/M09 A3025 RMK A01 T00431085  RH  039%=      5-min Rain = 0
KFR1 082121Z 06004KT 04/M09 A3025 RMK A01 T00431085  RH  039%=      5-min Rain = 0
KFR1 082122Z 05002KT 04/M09 A3024 RMK A01 T00421087  RH  039%=      5-min Rain = 0
KFR1 082123Z 08005KT 04/M09 A3024 RMK A01 T00421085  RH  039%=      5-min Rain = 0
KFR1 082124Z 08005KT 04/M09 A3024 RMK A01 T00431085  RH  039%=      5-min Rain = 0
KFR1 082125Z 08004KT 04/M08 A3024 RMK A01 T00431084  RH  039%=      5-min Rain = 0
KFR1 082126Z 10004KT 04/M08 A3024 RMK A01 T00441083  RH  039%=      5-min Rain = 0
KFR1 082127Z 09003KT 04/M09 A3024 RMK A01 T00441085  RH  039%=      5-min Rain = 0
KFR1 082128Z 09002KT 04/M09 A3024 RMK A01 T00421087  RH  039%=      5-min Rain = 0
KFR1 082129Z 07001KT 04/M09 A3024 RMK A01 T00421086  RH  039%=      5-min Rain = 0
KFR1 082130Z 05001KT 04/M09 A3024 RMK A01 T00411087  RH  039%=      5-min Rain = 0
KFR1 082131Z 01001KT 04/M09 A3024 RMK A01 T00421086  RH  039%=      5-min Rain = 0
KFR1 082132Z 34001KT 04/M09 A3024 RMK A01 T00431085  RH  039%=      5-min Rain = 0
KFR1 082133Z 04001KT 04/M08 A3024 RMK A01 T00431084  RH  039%=      5-min Rain = 0
KFR1 082134Z 04002KT 05/M08 A3024 RMK A01 T00451083  RH  039%=      5-min Rain = 0
KFR1 082135Z 10002KT 05/M08 A3024 RMK A01 T00451084  RH  039%=      5-min Rain = 0
KFR1 082136Z 09003KT 04/M09 A3024 RMK A01 T00441085  RH  038%=      5-min Rain = 0
KFR1 082137Z 11004KT 04/M08 A3024 RMK A01 T00441084  RH  039%=      5-min Rain = 0
KFR1 082138Z 09003KT 05/M08 A3024 RMK A01 T00451083  RH  039%=      5-min Rain = 0
KFR1 082139Z 09005KT 05/M08 A3024 RMK A01 T00471081  RH  039%=      5-min Rain = 0
KFR1 082140Z 07005KT 05/M08 A3024 RMK A01 T00471083  RH  038%=      5-min Rain = 0
KFR1 082141Z 08004KT 04/M09 A3024 RMK A01 T00441085  RH  038%=      5-min Rain = 0
KFR1 082142Z 09003KT 04/M08 A3024 RMK A01 T00441083  RH  039%=      5-min Rain = 0
KFR1 082143Z 09003KT 05/M08 A3024 RMK A01 T00451083  RH  039%=      5-min Rain = 0
KFR1 082144Z 10003KT 05/M08 A3024 RMK A01 T00451084  RH  039%=      5-min Rain = 0
KFR1 082145Z 09003KT 05/M08 A3024 RMK A01 T00451083  RH  039%=      5-min Rain = 0
KFR1 082146Z 10002KT 05/M08 A3024 RMK A01 T00461083  RH  039%=      5-min Rain = 0
KFR1 082147Z 06003KT 05/M08 A3024 RMK A01 T00451083  RH  039%=      5-min Rain = 0
KFR1 082148Z 03003KT 05/M08 A3024 RMK A01 T00451082  RH  039%=      5-min Rain = 0
KFR1 082149Z 05004KT 05/M08 A3024 RMK A01 T00451083  RH  039%=      5-min Rain = 0
KFR1 082150Z 06005KT 04/M08 A3024 RMK A01 T00441084  RH  039%=      5-min Rain = 0
KFR1 082151Z 08006KT 04/M08 A3024 RMK A01 T00431083  RH  039%=      5-min Rain = 0
KFR1 082152Z 08006KT 04/M08 A3024 RMK A01 T00431082  RH  040%=      5-min Rain = 0
KFR1 082153Z 08005KT 04/M08 A3024 RMK A01 T00421083  RH  040%=      5-min Rain = 0
KFR1 082154Z 09005KT 04/M08 A3024 RMK A01 T00421082  RH  040%=      5-min Rain = 0
KFR1 082155Z 09004KT 04/M08 A3024 RMK A01 T00421082  RH  040%=      5-min Rain = 0
KFR1 082156Z 10004KT 04/M08 A3024 RMK A01 T00421082  RH  040%=      5-min Rain = 0
KFR1 082157Z 09004KT 04/M08 A3024 RMK A01 T00421082  RH  040%=      5-min Rain = 0
KFR1 082158Z 08005KT 04/M08 A3024 RMK A01 T00431080  RH  040%=      5-min Rain = 0
KFR1 082159Z 09003KT 04/M08 A3024 RMK A01 T00431081  RH  040%=      5-min Rain = 0
KFR1 082200Z 10002KT 04/M08 A3024 RMK A01 T00421083  RH  040%=      5-min Rain = 0
KFR1 082201Z 09002KT 04/M08 A3024 RMK A01 T00421083  RH  040%=      5-min Rain = 0
KFR1 082202Z 11001KT 04/M08 A3024 RMK A01 T00421082  RH  040%=      5-min Rain = 0
KFR1 082203Z 05002KT 04/M08 A3024 RMK A01 T00431081  RH  040%=      5-min Rain = 0
KFR1 082204Z 03002KT 05/M08 A3024 RMK A01 T00451081  RH  040%=      5-min Rain = 0
KFR1 082205Z 01002KT 05/M08 A3024 RMK A01 T00451082  RH  039%=      5-min Rain = 0
KFR1 082206Z 02002KT 04/M08 A3024 RMK A01 T00441082  RH  039%=      5-min Rain = 0
KFR1 082207Z 04002KT 04/M08 A3024 RMK A01 T00441081  RH  040%=      5-min Rain = 0
KFR1 082208Z 06003KT 04/M08 A3024 RMK A01 T00441081  RH  040%=      5-min Rain = 0
KFR1 082209Z 08006KT 04/M08 A3024 RMK A01 T00441081  RH  040%=      5-min Rain = 0
KFR1 082210Z 08005KT 04/M08 A3024 RMK A01 T00431081  RH  040%=      5-min Rain = 0
KFR1 082211Z 08006KT 04/M08 A3024 RMK A01 T00431081  RH  040%=      5-min Rain = 0
KFR1 082212Z 08006KT 04/M08 A3024 RMK A01 T00421081  RH  040%=      5-min Rain = 0
KFR1 082213Z 08004KT 04/M08 A3024 RMK A01 T00421081  RH  040%=      5-min Rain = 0
KFR1 082214Z 10004KT 04/M08 A3024 RMK A01 T00411081  RH  041%=      5-min Rain = 0
KFR1 082215Z 10004KT 04/M08 A3024 RMK A01 T00411081  RH  041%=      5-min Rain = 0
KFR1 082216Z 10005KT 04/M08 A3024 RMK A01 T00411081  RH  041%=      5-min Rain = 0
KFR1 082217Z 11005KT 04/M08 A3024 RMK A01 T00421080  RH  041%=      5-min Rain = 0
KFR1 082218Z 10004KT 04/M08 A3024 RMK A01 T00411082  RH  040%=      5-min Rain = 0
KFR1 082219Z 06004KT 04/M08 A3024 RMK A01 T00401082  RH  041%=      5-min Rain = 0
KFR1 082220Z 06003KT 04/M08 A3024 RMK A01 T00401082  RH  041%=      5-min Rain = 0
KFR1 082221Z 06004KT 04/M08 A3024 RMK A01 T00391082  RH  041%=      5-min Rain = 0
KFR1 082222Z 05005KT 04/M08 A3024 RMK A01 T00401081  RH  041%=      5-min Rain = 0
KFR1 082223Z 05003KT 04/M08 A3024 RMK A01 T00391081  RH  041%=      5-min Rain = 0
KFR1 082224Z 05003KT 04/M08 A3024 RMK A01 T00401081  RH  041%=      5-min Rain = 0
KFR1 082225Z 03002KT 04/M08 A3024 RMK A01 T00401080  RH  041%=      5-min Rain = 0
KFR1 082226Z 02001KT 04/M08 A3024 RMK A01 T00401080  RH  041%=      5-min Rain = 0
KFR1 082227Z 03001KT 04/M08 A3024 RMK A01 T00401081  RH  041%=      5-min Rain = 0
KFR1 082228Z 08001KT 04/M08 A3024 RMK A01 T00411080  RH  041%=      5-min Rain = 0
KFR1 082229Z 08003KT 04/M08 A3024 RMK A01 T00411080  RH  041%=      5-min Rain = 0
KFR1 082230Z 09002KT 04/M08 A3024 RMK A01 T00421080  RH  041%=      5-min Rain = 0
KFR1 082231Z 10003KT 04/M08 A3024 RMK A01 T00411081  RH  041%=      5-min Rain = 0
KFR1 082232Z 09003KT 04/M08 A3024 RMK A01 T00411081  RH  041%=      5-min Rain = 0
KFR1 082233Z 05002KT 04/M08 A3025 RMK A01 T00411080  RH  041%=      5-min Rain = 0
KFR1 082234Z 04004KT 04/M08 A3025 RMK A01 T00411080  RH  041%=      5-min Rain = 0
KFR1 082235Z 04005KT 04/M08 A3025 RMK A01 T00411080  RH  041%=      5-min Rain = 0
KFR1 082236Z 04004KT 04/M08 A3025 RMK A01 T00401080  RH  041%=      5-min Rain = 0
KFR1 082237Z 05004KT 04/M08 A3025 RMK A01 T00391080  RH  041%=      5-min Rain = 0
KFR1 082238Z 05004KT 04/M08 A3025 RMK A01 T00391080  RH  041%=      5-min Rain = 0
KFR1 082239Z 05004KT 04/M08 A3025 RMK A01 T00381081  RH  041%=      5-min Rain = 0
KFR1 082240Z 06004KT 04/M08 A3025 RMK A01 T00381081  RH  042%=      5-min Rain = 0
KFR1 082241Z 06005KT 04/M08 A3025 RMK A01 T00381080  RH  042%=      5-min Rain = 0
KFR1 082242Z 06006KT 04/M08 A3025 RMK A01 T00381080  RH  042%=      5-min Rain = 0
KFR1 082243Z 08006KT 04/M08 A3025 RMK A01 T00381081  RH  042%=      5-min Rain = 0
KFR1 082244Z 07005KT 04/M08 A3025 RMK A01 T00381080  RH  042%=      5-min Rain = 0
KFR1 082245Z 08005KT 04/M08 A3025 RMK A01 T00371080  RH  042%=      5-min Rain = 0
KFR1 082246Z 07004KT 04/M08 A3025 RMK A01 T00371080  RH  042%=      5-min Rain = 0
KFR1 082247Z 07004KT 04/M08 A3025 RMK A01 T00371080  RH  042%=      5-min Rain = 0
KFR1 082248Z 06003KT 04/M08 A3025 RMK A01 T00371080  RH  042%=      5-min Rain = 0
KFR1 082249Z 04001KT 04/M08 A3025 RMK A01 T00371081  RH  042%=      5-min Rain = 0
KFR1 082250Z 06001KT 04/M08 A3025 RMK A01 T00381081  RH  042%=      5-min Rain = 0
KFR1 082251Z 07003KT 04/M08 A3025 RMK A01 T00381081  RH  042%=      5-min Rain = 0
KFR1 082252Z 07004KT 04/M08 A3025 RMK A01 T00381080  RH  042%=      5-min Rain = 0
KFR1 082253Z 08004KT 04/M08 A3025 RMK A01 T00371080  RH  042%=      5-min Rain = 0
KFR1 082254Z 07003KT 04/M08 A3025 RMK A01 T00371079  RH  042%=      5-min Rain = 0
KFR1 082255Z 09003KT 04/M08 A3025 RMK A01 T00361080  RH  043%=      5-min Rain = 0
KFR1 082256Z 09003KT 04/M08 A3025 RMK A01 T00361080  RH  043%=      5-min Rain = 0
KFR1 082257Z 09003KT 04/M08 A3025 RMK A01 T00351080  RH  043%=      5-min Rain = 0
KFR1 082258Z 09003KT 03/M08 A3025 RMK A01 T00341080  RH  043%=      5-min Rain = 0
KFR1 082259Z 09003KT 03/M08 A3025 RMK A01 T00331080  RH  043%=      5-min Rain = 0
KFR1 082300Z 08004KT 03/M08 A3025 RMK A01 T00331080  RH  043%=      5-min Rain = 0
KFR1 082301Z 07005KT 03/M08 A3025 RMK A01 T00331079  RH  043%=      5-min Rain = 0
KFR1 082302Z 06004KT 03/M08 A3025 RMK A01 T00331079  RH  044%=      5-min Rain = 0
KFR1 082303Z 06004KT 03/M08 A3025 RMK A01 T00331078  RH  044%=      5-min Rain = 0
KFR1 082304Z 06004KT 03/M08 A3025 RMK A01 T00341078  RH  044%=      5-min Rain = 0
KFR1 082305Z 05004KT 03/M08 A3025 RMK A01 T00341078  RH  044%=      5-min Rain = 0
KFR1 082306Z 06003KT 03/M08 A3025 RMK A01 T00341078  RH  044%=      5-min Rain = 0
KFR1 082307Z 07004KT 03/M08 A3026 RMK A01 T00341078  RH  044%=      5-min Rain = 0
KFR1 082308Z 07004KT 03/M08 A3026 RMK A01 T00341078  RH  044%=      5-min Rain = 0
KFR1 082309Z 06004KT 03/M08 A3025 RMK A01 T00341078  RH  043%=      5-min Rain = 0
KFR1 082310Z 08003KT 03/M08 A3025 RMK A01 T00341078  RH  043%=      5-min Rain = 0
KFR1 082311Z 08004KT 03/M08 A3025 RMK A01 T00331079  RH  044%=      5-min Rain = 0
KFR1 082312Z 08004KT 03/M08 A3025 RMK A01 T00321079  RH  044%=      5-min Rain = 0
KFR1 082313Z 09004KT 03/M08 A3025 RMK A01 T00311079  RH  044%=      5-min Rain = 0
KFR1 082314Z 09004KT 03/M08 A3025 RMK A01 T00301079  RH  044%=      5-min Rain = 0
KFR1 082315Z 10005KT 03/M08 A3025 RMK A01 T00291080  RH  045%=      5-min Rain = 0
KFR1 082316Z 09004KT 03/M08 A3025 RMK A01 T00291079  RH  045%=      5-min Rain = 0
KFR1 082317Z 09004KT 03/M08 A3025 RMK A01 T00291079  RH  045%=      5-min Rain = 0
KFR1 082318Z 09005KT 03/M08 A3025 RMK A01 T00281080  RH  045%=      5-min Rain = 0
KFR1 082319Z 09004KT 03/M08 A3025 RMK A01 T00281079  RH  045%=      5-min Rain = 0
KFR1 082320Z 09004KT 03/M08 A3025 RMK A01 T00271079  RH  045%=      5-min Rain = 0
KFR1 082321Z 09003KT 03/M08 A3025 RMK A01 T00261080  RH  046%=      5-min Rain = 0
KFR1 082322Z 09004KT 03/M08 A3025 RMK A01 T00261079  RH  046%=      5-min Rain = 0
KFR1 082323Z 09004KT 03/M08 A3025 RMK A01 T00261079  RH  046%=      5-min Rain = 0
KFR1 082324Z 08004KT 03/M08 A3025 RMK A01 T00261079  RH  046%=      5-min Rain = 0
KFR1 082325Z 08004KT 03/M08 A3025 RMK A01 T00251079  RH  046%=      5-min Rain = 0
KFR1 082326Z 08005KT 02/M08 A3025 RMK A01 T00241078  RH  047%=      5-min Rain = 0
KFR1 082327Z 08004KT 03/M08 A3025 RMK A01 T00251078  RH  047%=      5-min Rain = 0
KFR1 082328Z 09004KT 03/M08 A3025 RMK A01 T00251078  RH  047%=      5-min Rain = 0
KFR1 082329Z 09004KT 02/M08 A3025 RMK A01 T00241078  RH  047%=      5-min Rain = 0
KFR1 082330Z 10003KT 02/M08 A3025 RMK A01 T00241078  RH  047%=      5-min Rain = 0
KFR1 082331Z 09003KT 03/M08 A3025 RMK A01 T00261077  RH  047%=      5-min Rain = 0
KFR1 082332Z 09004KT 03/M08 A3025 RMK A01 T00261078  RH  046%=      5-min Rain = 0
KFR1 082333Z 10005KT 02/M08 A3025 RMK A01 T00241079  RH  047%=      5-min Rain = 0
KFR1 082334Z 09004KT 02/M08 A3025 RMK A01 T00231079  RH  047%=      5-min Rain = 0
KFR1 082335Z 10004KT 02/M08 A3025 RMK A01 T00231078  RH  047%=      5-min Rain = 0
KFR1 082336Z 09004KT 02/M08 A3025 RMK A01 T00231078  RH  047%=      5-min Rain = 0
KFR1 082337Z 10004KT 02/M08 A3025 RMK A01 T00241078  RH  047%=      5-min Rain = 0
KFR1 082338Z 10004KT 02/M08 A3025 RMK A01 T00241078  RH  047%=      5-min Rain = 0
KFR1 082339Z 10004KT 02/M08 A3025 RMK A01 T00241078  RH  047%=      5-min Rain = 0
KFR1 082340Z 10004KT 02/M08 A3025 RMK A01 T00241078  RH  047%=      5-min Rain = 0
KFR1 082341Z 10005KT 02/M08 A3025 RMK A01 T00231078  RH  047%=      5-min Rain = 0
KFR1 082342Z 10004KT 02/M08 A3025 RMK A01 T00231078  RH  047%=      5-min Rain = 0
KFR1 082343Z 09005KT 02/M08 A3025 RMK A01 T00231078  RH  047%=      5-min Rain = 0
KFR1 082344Z 10005KT 02/M08 A3025 RMK A01 T00231078  RH  047%=      5-min Rain = 0
KFR1 082345Z 10005KT 02/M08 A3025 RMK A01 T00221078  RH  047%=      5-min Rain = 0
KFR1 082346Z 09005KT 02/M08 A3025 RMK A01 T00221078  RH  047%=      5-min Rain = 0
KFR1 082347Z 09004KT 02/M08 A3026 RMK A01 T00221078  RH  047%=      5-min Rain = 0
KFR1 082348Z 09004KT 02/M08 A3026 RMK A01 T00221078  RH  047%=      5-min Rain = 0
KFR1 082349Z 09004KT 02/M08 A3026 RMK A01 T00221078  RH  048%=      5-min Rain = 0
KFR1 082350Z 09004KT 02/M08 A3026 RMK A01 T00221078  RH  048%=      5-min Rain = 0
KFR1 082351Z 09004KT 02/M08 A3026 RMK A01 T00221077  RH  048%=      5-min Rain = 0
KFR1 082352Z 09004KT 02/M08 A3026 RMK A01 T00211078  RH  048%=      5-min Rain = 0
KFR1 082353Z 10005KT 02/M08 A3026 RMK A01 T00211078  RH  048%=      5-min Rain = 0
KFR1 082354Z 10004KT 02/M08 A3026 RMK A01 T00211077  RH  048%=      5-min Rain = 0
KFR1 082355Z 10005KT 02/M08 A3026 RMK A01 T00211077  RH  048%=      5-min Rain = 0
KFR1 082356Z 10005KT 02/M08 A3026 RMK A01 T00211078  RH  048%=      5-min Rain = 0
KFR1 082357Z 10005KT 02/M08 A3026 RMK A01 T00211078  RH  048%=      5-min Rain = 0
KFR1 082358Z 10005KT 02/M08 A3026 RMK A01 T00211078  RH  048%=      5-min Rain = 0
KFR1 082359Z 10005KT 02/M08 A3026 RMK A01 T00211078  RH  048%=      5-min Rain = 0
KFR1 090000Z 10005KT 02/M08 A3026 RMK A01 T00211078  RH  048%=      5-min Rain = 0
KFR1 090001Z 10005KT 02/M08 A3026 RMK A01 T00201078  RH  048%=      5-min Rain = 0
KFR1 090002Z 10004KT 02/M08 A3026 RMK A01 T00201078  RH  048%=      5-min Rain = 0
KFR1 090003Z 09004KT 02/M08 A3026 RMK A01 T00191079  RH  048%=      5-min Rain = 0
KFR1 090004Z 09004KT 02/M08 A3026 RMK A01 T00181079  RH  049%=      5-min Rain = 0
KFR1 090005Z 09004KT 02/M08 A3026 RMK A01 T00181078  RH  049%=      5-min Rain = 0
KFR1 090006Z 09004KT 02/M08 A3026 RMK A01 T00191078  RH  049%=      5-min Rain = 0
KFR1 090007Z 09004KT 02/M08 A3026 RMK A01 T00181078  RH  049%=      5-min Rain = 0
KFR1 090008Z 09004KT 02/M08 A3026 RMK A01 T00181078  RH  049%=      5-min Rain = 0
KFR1 090009Z 09005KT 02/M08 A3026 RMK A01 T00191077  RH  049%=      5-min Rain = 0
KFR1 090010Z 10004KT 02/M08 A3026 RMK A01 T00191077  RH  049%=      5-min Rain = 0
KFR1 090011Z 09004KT 02/M08 A3026 RMK A01 T00191077  RH  049%=      5-min Rain = 0
KFR1 090012Z 09004KT 02/M08 A3026 RMK A01 T00191077  RH  049%=      5-min Rain = 0
KFR1 090013Z 09005KT 02/M08 A3026 RMK A01 T00191078  RH  049%=      5-min Rain = 0
KFR1 090014Z 09005KT 02/M08 A3026 RMK A01 T00191077  RH  049%=      5-min Rain = 0
KFR1 090015Z 09005KT 02/M08 A3026 RMK A01 T00181077  RH  049%=      5-min Rain = 0
KFR1 090016Z 09005KT 02/M08 A3026 RMK A01 T00181077  RH  049%=      5-min Rain = 0
KFR1 090017Z 09005KT 02/M08 A3026 RMK A01 T00181077  RH  049%=      5-min Rain = 0
KFR1 090018Z 09005KT 02/M08 A3026 RMK A01 T00181077  RH  049%=      5-min Rain = 0
KFR1 090019Z 09005KT 02/M08 A3026 RMK A01 T00171077  RH  050%=      5-min Rain = 0
KFR1 090020Z 09005KT 02/M08 A3026 RMK A01 T00161077  RH  050%=      5-min Rain = 0
KFR1 090021Z 08005KT 02/M08 A3026 RMK A01 T00161077  RH  050%=      5-min Rain = 0
KFR1 090022Z 08005KT 02/M08 A3026 RMK A01 T00151077  RH  050%=      5-min Rain = 0
KFR1 090023Z 08005KT 01/M08 A3026 RMK A01 T00131077  RH  051%=      5-min Rain = 0
KFR1 090024Z 09005KT 01/M08 A3026 RMK A01 T00121077  RH  051%=      5-min Rain = 0
KFR1 090025Z 08005KT 01/M08 A3026 RMK A01 T00121076  RH  052%=      5-min Rain = 0
KFR1 090026Z 08005KT 01/M08 A3026 RMK A01 T00131075  RH  052%=      5-min Rain = 0
KFR1 090027Z 08005KT 01/M08 A3026 RMK A01 T00141075  RH  052%=      5-min Rain = 0
KFR1 090028Z 09005KT 01/M08 A3026 RMK A01 T00141075  RH  052%=      5-min Rain = 0
KFR1 090029Z 09005KT 01/M08 A3026 RMK A01 T00141075  RH  052%=      5-min Rain = 0
KFR1 090030Z 08005KT 01/M07 A3026 RMK A01 T00131074  RH  052%=      5-min Rain = 0
KFR1 090031Z 09005KT 01/M07 A3026 RMK A01 T00141074  RH  052%=      5-min Rain = 0
KFR1 090032Z 09005KT 01/M07 A3026 RMK A01 T00141074  RH  052%=      5-min Rain = 0
KFR1 090033Z 09006KT 01/M07 A3026 RMK A01 T00131074  RH  052%=      5-min Rain = 0
KFR1 090034Z 09005KT 01/M07 A3026 RMK A01 T00131073  RH  052%=      5-min Rain = 0
KFR1 090035Z 10005KT 01/M07 A3026 RMK A01 T00141073  RH  052%=      5-min Rain = 0
KFR1 090036Z 09005KT 01/M07 A3026 RMK A01 T00141073  RH  052%=      5-min Rain = 0
KFR1 090037Z 09005KT 01/M07 A3026 RMK A01 T00141073  RH  052%=      5-min Rain = 0
KFR1 090038Z 09005KT 01/M07 A3026 RMK A01 T00131073  RH  052%=      5-min Rain = 0
KFR1 090039Z 09005KT 01/M07 A3026 RMK A01 T00131074  RH  053%=      5-min Rain = 0
KFR1 090040Z 10005KT 01/M07 A3026 RMK A01 T00121074  RH  053%=      5-min Rain = 0
KFR1 090041Z 10005KT 01/M07 A3026 RMK A01 T00111073  RH  053%=      5-min Rain = 0
KFR1 090042Z 10005KT 01/M07 A3026 RMK A01 T00111073  RH  053%=      5-min Rain = 0
KFR1 090043Z 10005KT 01/M07 A3026 RMK A01 T00131072  RH  053%=      5-min Rain = 0
KFR1 090044Z 10005KT 01/M07 A3026 RMK A01 T00131073  RH  053%=      5-min Rain = 0
KFR1 090045Z 10005KT 01/M07 A3026 RMK A01 T00131073  RH  053%=      5-min Rain = 0
KFR1 090046Z 10005KT 01/M07 A3026 RMK A01 T00131073  RH  053%=      5-min Rain = 0
KFR1 090047Z 09007KT 01/M07 A3026 RMK A01 T00131073  RH  053%=      5-min Rain = 0
KFR1 090048Z 10006KT 01/M07 A3026 RMK A01 T00121073  RH  053%=      5-min Rain = 0
KFR1 090049Z 10005KT 01/M07 A3026 RMK A01 T00121073  RH  053%=      5-min Rain = 0
KFR1 090050Z 10005KT 01/M07 A3026 RMK A01 T00121073  RH  053%=      5-min Rain = 0
KFR1 090051Z 10005KT 01/M07 A3026 RMK A01 T00121074  RH  053%=      5-min Rain = 0
KFR1 090052Z 10005KT 01/M07 A3026 RMK A01 T00121073  RH  053%=      5-min Rain = 0
KFR1 090053Z 10005KT 01/M07 A3027 RMK A01 T00111074  RH  053%=      5-min Rain = 0
KFR1 090054Z 09005KT 01/M07 A3027 RMK A01 T00101074  RH  053%=      5-min Rain = 0
KFR1 090055Z 10005KT 01/M07 A3027 RMK A01 T00091074  RH  054%=      5-min Rain = 0
KFR1 090056Z 09005KT 01/M07 A3027 RMK A01 T00091074  RH  054%=      5-min Rain = 0
KFR1 090057Z 10006KT 01/M07 A3027 RMK A01 T00091073  RH  054%=      5-min Rain = 0
KFR1 090058Z 10006KT 01/M07 A3027 RMK A01 T00091073  RH  054%=      5-min Rain = 0
KFR1 090059Z 09005KT 01/M07 A3027 RMK A01 T00111072  RH  054%=      5-min Rain = 0
KFR1 090100Z 10005KT 01/M07 A3027 RMK A01 T00111073  RH  053%=      5-min Rain = 0
KFR1 090101Z 09005KT 01/M07 A3027 RMK A01 T00111073  RH  053%=      5-min Rain = 0
KFR1 090102Z 10005KT 01/M07 A3027 RMK A01 T00121074  RH  053%=      5-min Rain = 0
KFR1 090103Z 10005KT 01/M07 A3027 RMK A01 T00121074  RH  053%=      5-min Rain = 0
KFR1 090104Z 10005KT 01/M07 A3027 RMK A01 T00121074  RH  053%=      5-min Rain = 0
KFR1 090105Z 10005KT 01/M07 A3027 RMK A01 T00121074  RH  053%=      5-min Rain = 0
KFR1 090106Z 09004KT 01/M07 A3027 RMK A01 T00121074  RH  053%=      5-min Rain = 0
KFR1 090107Z 09005KT 01/M07 A3027 RMK A01 T00121074  RH  053%=      5-min Rain = 0
KFR1 090108Z 09005KT 01/M07 A3027 RMK A01 T00121074  RH  053%=      5-min Rain = 0
KFR1 090109Z 10005KT 01/M07 A3027 RMK A01 T00131073  RH  053%=      5-min Rain = 0
KFR1 090110Z 10005KT 01/M07 A3027 RMK A01 T00141074  RH  052%=      5-min Rain = 0
KFR1 090111Z 10004KT 01/M08 A3027 RMK A01 T00141075  RH  052%=      5-min Rain = 0
KFR1 090112Z 10005KT 01/M08 A3027 RMK A01 T00141075  RH  052%=      5-min Rain = 0
KFR1 090113Z 10005KT 01/M08 A3028 RMK A01 T00141075  RH  052%=      5-min Rain = 0
KFR1 090114Z 10005KT 01/M08 A3028 RMK A01 T00141075  RH  052%=      5-min Rain = 0
KFR1 090115Z 10005KT 01/M08 A3028 RMK A01 T00131075  RH  052%=      5-min Rain = 0
KFR1 090116Z 10005KT 01/M08 A3028 RMK A01 T00141075  RH  052%=      5-min Rain = 0
KFR1 090117Z 10005KT 01/M08 A3028 RMK A01 T00131075  RH  052%=      5-min Rain = 0
KFR1 090118Z 10006KT 01/M08 A3028 RMK A01 T00131075  RH  052%=      5-min Rain = 0
KFR1 090119Z 09006KT 01/M08 A3028 RMK A01 T00141075  RH  052%=      5-min Rain = 0
KFR1 090120Z 09006KT 01/M08 A3028 RMK A01 T00131075  RH  052%=      5-min Rain = 0
KFR1 090121Z 09006KT 01/M08 A3028 RMK A01 T00111076  RH  052%=      5-min Rain = 0
KFR1 090122Z 10006KT 01/M08 A3028 RMK A01 T00111075  RH  053%=      5-min Rain = 0
KFR1 090123Z 10006KT 01/M08 A3028 RMK A01 T00091076  RH  053%=      5-min Rain = 0
KFR1 090124Z 10005KT 01/M08 A3028 RMK A01 T00091076  RH  053%=      5-min Rain = 0
KFR1 090125Z 10006KT 01/M08 A3028 RMK A01 T00101076  RH  053%=      5-min Rain = 0
KFR1 090126Z 10006KT 01/M08 A3028 RMK A01 T00091076  RH  053%=      5-min Rain = 0
KFR1 090127Z 10006KT 01/M08 A3028 RMK A01 T00091076  RH  053%=      5-min Rain = 0
KFR1 090128Z 10006KT 01/M08 A3028 RMK A01 T00091076  RH  053%=      5-min Rain = 0
KFR1 090129Z 10005KT 01/M08 A3028 RMK A01 T00091076  RH  053%=      5-min Rain = 0
KFR1 090130Z 10005KT 01/M08 A3028 RMK A01 T00091077  RH  053%=      5-min Rain = 0
KFR1 090131Z 11005KT 01/M08 A3028 RMK A01 T00091077  RH  053%=      5-min Rain = 0
KFR1 090132Z 11005KT 01/M08 A3028 RMK A01 T00101077  RH  052%=      5-min Rain = 0
KFR1 090133Z 11005KT 01/M08 A3028 RMK A01 T00101077  RH  052%=      5-min Rain = 0
KFR1 090134Z 11005KT 01/M08 A3028 RMK A01 T00111077  RH  052%=      5-min Rain = 0
KFR1 090135Z 11005KT 01/M08 A3028 RMK A01 T00101077  RH  052%=      5-min Rain = 0
KFR1 090136Z 11005KT 01/M08 A3028 RMK A01 T00111076  RH  052%=      5-min Rain = 0
KFR1 090137Z 11005KT 01/M08 A3028 RMK A01 T00121076  RH  052%=      5-min Rain = 0
KFR1 090138Z 11005KT 01/M08 A3028 RMK A01 T00121076  RH  052%=      5-min Rain = 0
KFR1 090139Z 10005KT 01/M08 A3028 RMK A01 T00111077  RH  052%=      5-min Rain = 0
KFR1 090140Z 11005KT 01/M08 A3028 RMK A01 T00101077  RH  052%=      5-min Rain = 0
KFR1 090141Z 11005KT 01/M08 A3028 RMK A01 T00091078  RH  052%=      5-min Rain = 0
KFR1 090142Z 11005KT 01/M08 A3028 RMK A01 T00081077  RH  053%=      5-min Rain = 0
KFR1 090143Z 11005KT 01/M08 A3028 RMK A01 T00081077  RH  053%=      5-min Rain = 0
KFR1 090144Z 11005KT 01/M08 A3028 RMK A01 T00081077  RH  053%=      5-min Rain = 0
KFR1 090145Z 11004KT 01/M08 A3028 RMK A01 T00091076  RH  053%=      5-min Rain = 0
KFR1 090146Z 11004KT 01/M08 A3028 RMK A01 T00091077  RH  053%=      5-min Rain = 0
KFR1 090147Z 11004KT 01/M08 A3028 RMK A01 T00091077  RH  053%=      5-min Rain = 0
KFR1 090148Z 11004KT 01/M08 A3028 RMK A01 T00101076  RH  053%=      5-min Rain = 0
KFR1 090149Z 11004KT 01/M08 A3028 RMK A01 T00111076  RH  052%=      5-min Rain = 0
KFR1 090150Z 11005KT 01/M08 A3028 RMK A01 T00121076  RH  052%=      5-min Rain = 0
KFR1 090151Z 11004KT 01/M08 A3028 RMK A01 T00131076  RH  052%=      5-min Rain = 0
KFR1 090152Z 11004KT 01/M08 A3028 RMK A01 T00131076  RH  052%=      5-min Rain = 0
KFR1 090153Z 11004KT 01/M08 A3028 RMK A01 T00131076  RH  051%=      5-min Rain = 0
KFR1 090154Z 11004KT 01/M08 A3028 RMK A01 T00141076  RH  051%=      5-min Rain = 0
KFR1 090155Z 11004KT 01/M08 A3028 RMK A01 T00131076  RH  051%=      5-min Rain = 0
KFR1 090156Z 12004KT 01/M08 A3028 RMK A01 T00141076  RH  051%=      5-min Rain = 0
KFR1 090157Z 12004KT 01/M08 A3028 RMK A01 T00141076  RH  051%=      5-min Rain = 0
KFR1 090158Z 12004KT 01/M08 A3028 RMK A01 T00141076  RH  051%=      5-min Rain = 0
KFR1 090159Z 12004KT 01/M08 A3028 RMK A01 T00141076  RH  051%=      5-min Rain = 0
KFR1 090200Z 11004KT 01/M08 A3028 RMK A01 T00141076  RH  051%=      5-min Rain = 0
KFR1 090201Z 12004KT 01/M08 A3028 RMK A01 T00141076  RH  051%=      5-min Rain = 0
KFR1 090202Z 12004KT 01/M08 A3028 RMK A01 T00141076  RH  051%=      5-min Rain = 0
KFR1 090203Z 11004KT 01/M08 A3028 RMK A01 T00141076  RH  051%=      5-min Rain = 0
KFR1 090204Z 12004KT 01/M08 A3028 RMK A01 T00131076  RH  051%=      5-min Rain = 0
KFR1 090205Z 12003KT 01/M08 A3028 RMK A01 T00131076  RH  051%=      5-min Rain = 0
KFR1 090206Z 13003KT 01/M08 A3028 RMK A01 T00121077  RH  052%=      5-min Rain = 0
KFR1 090207Z 13003KT 01/M08 A3028 RMK A01 T00111077  RH  052%=      5-min Rain = 0
KFR1 090208Z 13003KT 01/M08 A3028 RMK A01 T00101078  RH  052%=      5-min Rain = 0
KFR1 090209Z 13002KT 01/M08 A3028 RMK A01 T00071078  RH  053%=      5-min Rain = 0
KFR1 090210Z 13003KT 01/M08 A3028 RMK A01 T00061078  RH  053%=      5-min Rain = 0
KFR1 090211Z 12002KT 01/M08 A3028 RMK A01 T00051078  RH  054%=      5-min Rain = 0
KFR1 090212Z 12002KT 01/M08 A3028 RMK A01 T00061077  RH  054%=      5-min Rain = 0
KFR1 090213Z 10001KT 01/M08 A3028 RMK A01 T00051078  RH  054%=      5-min Rain = 0
KFR1 090214Z 34001KT 00/M08 A3028 RMK A01 T00041077  RH  054%=      5-min Rain = 0
KFR1 090215Z 02000KT 00/M08 A3028 RMK A01 T00031078  RH  054%=      5-min Rain = 0
KFR1 090216Z 00000KT 00/M08 A3028 RMK A01 T00011078  RH  055%=      5-min Rain = 0
KFR1 090217Z 00000KT 00/M08 A3028 RMK A01 T00011077  RH  056%=      5-min Rain = 0
KFR1 090218Z 22000KT 00/M08 A3028 RMK A01 T00011077  RH  056%=      5-min Rain = 0
KFR1 090219Z 00000KT 00/M08 A3028 RMK A01 T00021077  RH  055%=      5-min Rain = 0
KFR1 090220Z 17000KT 00/M08 A3028 RMK A01 T00031078  RH  055%=      5-min Rain = 0
KFR1 090221Z 17000KT 00/M08 A3028 RMK A01 T00031078  RH  055%=      5-min Rain = 0
KFR1 090222Z 00000KT 00/M08 A3028 RMK A01 T00031078  RH  055%=      5-min Rain = 0
KFR1 090223Z 00000KT 00/M08 A3028 RMK A01 T00031078  RH  055%=      5-min Rain = 0
KFR1 090224Z 00000KT 00/M08 A3028 RMK A01 T00031078  RH  055%=      5-min Rain = 0
KFR1 090225Z 00000KT 00/M08 A3028 RMK A01 T00031078  RH  055%=      5-min Rain = 0
KFR1 090226Z 00000KT 00/M08 A3028 RMK A01 T00031076  RH  055%=      5-min Rain = 0
KFR1 090227Z 00000KT 00/M08 A3028 RMK A01 T00041075  RH  055%=      5-min Rain = 0
KFR1 090228Z 00000KT 00/M08 A3028 RMK A01 T00041075  RH  055%=      5-min Rain = 0
KFR1 090229Z 01000KT 00/M08 A3028 RMK A01 T00041075  RH  056%=      5-min Rain = 0
KFR1 090230Z 01001KT 00/M08 A3028 RMK A01 T00031075  RH  056%=      5-min Rain = 0
KFR1 090231Z 01001KT 00/M08 A3028 RMK A01 T00031075  RH  055%=      5-min Rain = 0
KFR1 090232Z 01000KT 00/M08 A3028 RMK A01 T00031075  RH  056%=      5-min Rain = 0
KFR1 090233Z 00000KT 00/M08 A3028 RMK A01 T00031075  RH  056%=      5-min Rain = 0
KFR1 090234Z 00000KT 00/M08 A3028 RMK A01 T00031075  RH  056%=      5-min Rain = 0
KFR1 090235Z 03000KT 00/M08 A3028 RMK A01 T00021075  RH  056%=      5-min Rain = 0
KFR1 090236Z 03000KT 00/M08 A3028 RMK A01 T00021075  RH  056%=      5-min Rain = 0
KFR1 090237Z 00000KT 00/M08 A3028 RMK A01 T00021075  RH  056%=      5-min Rain = 0
KFR1 090238Z 00000KT 00/M08 A3028 RMK A01 T00021076  RH  056%=      5-min Rain = 0
KFR1 090239Z 00000KT 00/M08 A3028 RMK A01 T00011076  RH  056%=      5-min Rain = 0
KFR1 090240Z 00000KT 00/M08 A3028 RMK A01 T00011076  RH  056%=      5-min Rain = 0
KFR1 090241Z 00000KT 00/M08 A3028 RMK A01 T00011076  RH  056%=      5-min Rain = 0
KFR1 090242Z 00000KT 00/M08 A3028 RMK A01 T00021077  RH  056%=      5-min Rain = 0
KFR1 090243Z 00000KT 00/M08 A3028 RMK A01 T00031077  RH  055%=      5-min Rain = 0
KFR1 090244Z 00000KT 00/M08 A3028 RMK A01 T00021077  RH  055%=      5-min Rain = 0
KFR1 090245Z 00000KT 00/M08 A3028 RMK A01 T00021077  RH  055%=      5-min Rain = 0
KFR1 090246Z 00000KT 00/M08 A3028 RMK A01 T00011077  RH  056%=      5-min Rain = 0
KFR1 090247Z 00000KT 00/08 A3028 RMK A01 T00000-77  RH  056%=      5-min Rain = 0
KFR1 090248Z 00000KT 00/08 A3028 RMK A01 T00000-76  RH  056%=      5-min Rain = 0
KFR1 090249Z 00000KT 00/08 A3029 RMK A01 T00000-77  RH  056%=      5-min Rain = 0
KFR1 090250Z 00000KT 00/08 A3029 RMK A01 T00-00-77  RH  056%=      5-min Rain = 0
KFR1 090251Z 00000KT 00/08 A3029 RMK A01 T00-00-77  RH  056%=      5-min Rain = 0
KFR1 090252Z 00000KT 00/08 A3029 RMK A01 T00000-77  RH  056%=      5-min Rain = 0
KFR1 090253Z 00000KT 00/08 A3029 RMK A01 T00-00-77  RH  056%=      5-min Rain = 0
KFR1 090254Z 00000KT M00/M08 A3029 RMK A01 T10011077  RH  056%=      5-min Rain = 0
KFR1 090255Z 00000KT M00/M08 A3029 RMK A01 T10011077  RH  057%=      5-min Rain = 0
KFR1 090256Z 00000KT M00/M08 A3029 RMK A01 T10011077  RH  057%=      5-min Rain = 0
KFR1 090257Z 00000KT M00/M08 A3029 RMK A01 T10021077  RH  057%=      5-min Rain = 0
KFR1 090258Z 00000KT M00/M08 A3029 RMK A01 T10031077  RH  057%=      5-min Rain = 0
KFR1 090259Z 00000KT M00/M08 A3029 RMK A01 T10031077  RH  057%=      5-min Rain = 0
KFR1 090300Z 00000KT M00/M08 A3029 RMK A01 T10031076  RH  058%=      5-min Rain = 0
KFR1 090301Z 00000KT M00/M08 A3029 RMK A01 T10031076  RH  058%=      5-min Rain = 0
KFR1 090302Z 00000KT M00/M08 A3029 RMK A01 T10031076  RH  058%=      5-min Rain = 0
KFR1 090303Z 00000KT M00/M08 A3029 RMK A01 T10031076  RH  058%=      5-min Rain = 0
KFR1 090304Z 21000KT M00/M08 A3029 RMK A01 T10021076  RH  058%=      5-min Rain = 0
KFR1 090305Z 25000KT M00/M08 A3029 RMK A01 T10021076  RH  057%=      5-min Rain = 0
KFR1 090306Z 23001KT M00/M08 A3029 RMK A01 T10021076  RH  057%=      5-min Rain = 0
KFR1 090307Z 23001KT M00/M08 A3029 RMK A01 T10041078  RH  057%=      5-min Rain = 0
KFR1 090308Z 26001KT M01/M08 A3029 RMK A01 T10061078  RH  058%=      5-min Rain = 0
KFR1 090309Z 29001KT M01/M08 A3029 RMK A01 T10071078  RH  059%=      5-min Rain = 0
KFR1 090310Z 29001KT M01/M08 A3029 RMK A01 T10071077  RH  059%=      5-min Rain = 0
KFR1 090311Z 32001KT M01/M08 A3029 RMK A01 T10081078  RH  059%=      5-min Rain = 0
KFR1 090312Z 01001KT M01/M08 A3029 RMK A01 T10091077  RH  060%=      5-min Rain = 0
KFR1 090313Z 35001KT M01/M07 A3029 RMK A01 T10081072  RH  062%=      5-min Rain = 0
KFR1 090314Z 36000KT M01/M07 A3029 RMK A01 T10081070  RH  063%=      5-min Rain = 0
KFR1 090315Z 34001KT M01/M07 A3029 RMK A01 T10071070  RH  062%=      5-min Rain = 0
KFR1 090316Z 32001KT M01/M07 A3029 RMK A01 T10061069  RH  062%=      5-min Rain = 0
KFR1 090317Z 33001KT M01/M07 A3029 RMK A01 T10051069  RH  062%=      5-min Rain = 0
KFR1 090318Z 35001KT M01/M07 A3029 RMK A01 T10051069  RH  062%=      5-min Rain = 0
KFR1 090319Z 35001KT M01/M07 A3029 RMK A01 T10051070  RH  061%=      5-min Rain = 0
KFR1 090320Z 34001KT M01/M07 A3029 RMK A01 T10051069  RH  062%=      5-min Rain = 0
KFR1 090321Z 34001KT M01/M07 A3029 RMK A01 T10051069  RH  062%=      5-min Rain = 0
KFR1 090322Z 34001KT M01/M07 A3029 RMK A01 T10051071  RH  061%=      5-min Rain = 0
KFR1 090323Z 34001KT M01/M07 A3029 RMK A01 T10051070  RH  062%=      5-min Rain = 0
KFR1 090324Z 35001KT M01/M07 A3029 RMK A01 T10051068  RH  063%=      5-min Rain = 0
KFR1 090325Z 00001KT M01/M07 A3029 RMK A01 T10061066  RH  064%=      5-min Rain = 0
KFR1 090326Z 02001KT M01/M06 A3029 RMK A01 T10061063  RH  066%=      5-min Rain = 0
KFR1 090327Z 03001KT M01/M06 A3029 RMK A01 T10071061  RH  066%=      5-min Rain = 0
KFR1 090328Z 03001KT M01/M06 A3029 RMK A01 T10071060  RH  067%=      5-min Rain = 0
KFR1 090329Z 04002KT M01/M06 A3029 RMK A01 T10061060  RH  067%=      5-min Rain = 0
KFR1 090330Z 03002KT M01/M06 A3029 RMK A01 T10061056  RH  069%=      5-min Rain = 0
KFR1 090331Z 03001KT M01/M06 A3029 RMK A01 T10061056  RH  069%=      5-min Rain = 0
KFR1 090332Z 05002KT M01/M06 A3029 RMK A01 T10051060  RH  067%=      5-min Rain = 0
KFR1 090333Z 05002KT M01/M06 A3029 RMK A01 T10051064  RH  064%=      5-min Rain = 0
KFR1 090334Z 05002KT M01/M07 A3029 RMK A01 T10051068  RH  062%=      5-min Rain = 0
KFR1 090335Z 06003KT M01/M07 A3029 RMK A01 T10051069  RH  062%=      5-min Rain = 0
KFR1 090336Z 05002KT M01/M07 A3029 RMK A01 T10071072  RH  061%=      5-min Rain = 0
KFR1 090337Z 05003KT M01/M07 A3029 RMK A01 T10081070  RH  063%=      5-min Rain = 0
KFR1 090338Z 04003KT M01/M07 A3029 RMK A01 T10091066  RH  065%=      5-min Rain = 0
KFR1 090339Z 05002KT M01/M06 A3029 RMK A01 T10091064  RH  066%=      5-min Rain = 0
KFR1 090340Z 04002KT M01/M06 A3029 RMK A01 T10091063  RH  067%=      5-min Rain = 0
KFR1 090341Z 04002KT M01/M06 A3029 RMK A01 T10101064  RH  067%=      5-min Rain = 0
KFR1 090342Z 04002KT M01/M06 A3029 RMK A01 T10101064  RH  067%=      5-min Rain = 0
KFR1 090343Z 04002KT M01/M06 A3029 RMK A01 T10101064  RH  067%=      5-min Rain = 0
KFR1 090344Z 03003KT M01/M06 A3029 RMK A01 T10101063  RH  067%=      5-min Rain = 0
KFR1 090345Z 04003KT M01/M06 A3029 RMK A01 T10101062  RH  068%=      5-min Rain = 0
KFR1 090346Z 03003KT M01/M06 A3029 RMK A01 T10101061  RH  068%=      5-min Rain = 0
KFR1 090347Z 03003KT M01/M06 A3029 RMK A01 T10091058  RH  069%=      5-min Rain = 0
KFR1 090348Z 04003KT M01/M06 A3029 RMK A01 T10081056  RH  070%=      5-min Rain = 0
KFR1 090349Z 04003KT M01/M06 A3029 RMK A01 T10081056  RH  070%=      5-min Rain = 0
KFR1 090350Z 04004KT M01/M06 A3029 RMK A01 T10081058  RH  069%=      5-min Rain = 0
KFR1 090351Z 03004KT M01/M06 A3029 RMK A01 T10081059  RH  068%=      5-min Rain = 0
KFR1 090352Z 03004KT M01/M06 A3029 RMK A01 T10101060  RH  068%=      5-min Rain = 0
KFR1 090353Z 03003KT M01/M06 A3029 RMK A01 T10101060  RH  069%=      5-min Rain = 0
KFR1 090354Z 03004KT M01/M06 A3029 RMK A01 T10111061  RH  069%=      5-min Rain = 0
KFR1 090355Z 03004KT M01/M06 A3029 RMK A01 T10111060  RH  069%=      5-min Rain = 0
KFR1 090356Z 03004KT M01/M06 A3029 RMK A01 T10111061  RH  069%=      5-min Rain = 0
KFR1 090357Z 03004KT M01/M06 A3029 RMK A01 T10111061  RH  069%=      5-min Rain = 0
KFR1 090358Z 03003KT M01/M06 A3029 RMK A01 T10121062  RH  069%=      5-min Rain = 0
KFR1 090359Z 04003KT M01/M06 A3029 RMK A01 T10121061  RH  069%=      5-min Rain = 0
KFR1 090400Z 03003KT M01/M06 A3029 RMK A01 T10121061  RH  069%=      5-min Rain = 0
KFR1 090401Z 03003KT M01/M06 A3029 RMK A01 T10121059  RH  070%=      5-min Rain = 0
KFR1 090402Z 03003KT M01/M06 A3029 RMK A01 T10121060  RH  070%=      5-min Rain = 0
KFR1 090403Z 02003KT M01/M06 A3029 RMK A01 T10131059  RH  071%=      5-min Rain = 0
KFR1 090404Z 03004KT M01/M06 A3029 RMK A01 T10131057  RH  072%=      5-min Rain = 0
KFR1 090405Z 02003KT M01/M06 A3029 RMK A01 T10131056  RH  073%=      5-min Rain = 0
KFR1 090406Z 02003KT M01/M06 A3029 RMK A01 T10131055  RH  073%=      5-min Rain = 0
KFR1 090407Z 03003KT M01/M06 A3029 RMK A01 T10131055  RH  073%=      5-min Rain = 0
KFR1 090408Z 03002KT M01/M06 A3029 RMK A01 T10141056  RH  073%=      5-min Rain = 0
KFR1 090409Z 03003KT M02/M06 A3029 RMK A01 T10151057  RH  073%=      5-min Rain = 0
KFR1 090410Z 02002KT M02/M06 A3029 RMK A01 T10161058  RH  073%=      5-min Rain = 0
KFR1 090411Z 01002KT M02/M06 A3029 RMK A01 T10161057  RH  073%=      5-min Rain = 0
KFR1 090412Z 01002KT M02/M06 A3029 RMK A01 T10161055  RH  074%=      5-min Rain = 0
KFR1 090413Z 02002KT M01/M05 A3029 RMK A01 T10141054  RH  074%=      5-min Rain = 0
KFR1 090414Z 02003KT M01/M05 A3029 RMK A01 T10141054  RH  074%=      5-min Rain = 0
KFR1 090415Z 02002KT M01/M05 A3029 RMK A01 T10131054  RH  074%=      5-min Rain = 0
KFR1 090416Z 01003KT M01/M06 A303 RMK A01 T10131055  RH  073%=      5-min Rain = 0
KFR1 090417Z 01003KT M01/M06 A303 RMK A01 T10141055  RH  074%=      5-min Rain = 0
KFR1 090418Z 00002KT M01/M05 A303 RMK A01 T10141053  RH  075%=      5-min Rain = 0
KFR1 090419Z 00003KT M01/M05 A303 RMK A01 T10141053  RH  075%=      5-min Rain = 0
KFR1 090420Z 01003KT M01/M05 A303 RMK A01 T10131053  RH  075%=      5-min Rain = 0
KFR1 090421Z 00003KT M01/M05 A303 RMK A01 T10131053  RH  075%=      5-min Rain = 0
KFR1 090422Z 00003KT M01/M05 A303 RMK A01 T10141053  RH  075%=      5-min Rain = 0
KFR1 090423Z 36002KT M01/M05 A303 RMK A01 T10141052  RH  075%=      5-min Rain = 0
KFR1 090424Z 00002KT M01/M05 A303 RMK A01 T10141052  RH  075%=      5-min Rain = 0
KFR1 090425Z 36002KT M01/M05 A303 RMK A01 T10141052  RH  075%=      5-min Rain = 0
KFR1 090426Z 35002KT M01/M05 A303 RMK A01 T10141051  RH  075%=      5-min Rain = 0
KFR1 090427Z 01002KT M01/M05 A303 RMK A01 T10141051  RH  076%=      5-min Rain = 0
KFR1 090428Z 01002KT M01/M05 A303 RMK A01 T10131051  RH  076%=      5-min Rain = 0
KFR1 090429Z 36002KT M01/M05 A303 RMK A01 T10131051  RH  076%=      5-min Rain = 0
KFR1 090430Z 00002KT M01/M05 A303 RMK A01 T10131051  RH  076%=      5-min Rain = 0
KFR1 090431Z 01001KT M01/M05 A303 RMK A01 T10131051  RH  076%=      5-min Rain = 0
KFR1 090432Z 00001KT M01/M05 A303 RMK A01 T10131051  RH  076%=      5-min Rain = 0
KFR1 090433Z 35001KT M02/M05 A303 RMK A01 T10151054  RH  074%=      5-min Rain = 0
KFR1 090434Z 34001KT M02/M06 A303 RMK A01 T10161057  RH  074%=      5-min Rain = 0
KFR1 090435Z 34001KT M02/M06 A303 RMK A01 T10171055  RH  075%=      5-min Rain = 0
KFR1 090436Z 34001KT M02/M05 A303 RMK A01 T10171052  RH  077%=      5-min Rain = 0
KFR1 090437Z 35001KT M02/M05 A303 RMK A01 T10171051  RH  078%=      5-min Rain = 0
KFR1 090438Z 35001KT M02/M05 A303 RMK A01 T10161050  RH  078%=      5-min Rain = 0
KFR1 090439Z 35001KT M02/M05 A303 RMK A01 T10161050  RH  078%=      5-min Rain = 0
KFR1 090440Z 35001KT M02/M05 A303 RMK A01 T10161050  RH  077%=      5-min Rain = 0
KFR1 090441Z 35001KT M02/M05 A303 RMK A01 T10151050  RH  077%=      5-min Rain = 0
KFR1 090442Z 35001KT M02/M05 A303 RMK A01 T10151049  RH  077%=      5-min Rain = 0
KFR1 090443Z 35001KT M02/M05 A303 RMK A01 T10151050  RH  077%=      5-min Rain = 0
KFR1 090444Z 35001KT M02/M05 A303 RMK A01 T10151050  RH  077%=      5-min Rain = 0
KFR1 090445Z 35001KT M02/M05 A303 RMK A01 T10151050  RH  077%=      5-min Rain = 0
KFR1 090446Z 35001KT M02/M05 A303 RMK A01 T10151050  RH  077%=      5-min Rain = 0
KFR1 090447Z 35001KT M02/M05 A303 RMK A01 T10151050  RH  077%=      5-min Rain = 0
KFR1 090448Z 35001KT M02/M05 A303 RMK A01 T10151050  RH  077%=      5-min Rain = 0
KFR1 090449Z 35001KT M02/M05 A303 RMK A01 T10151051  RH  077%=      5-min Rain = 0
KFR1 090450Z 35001KT M02/M05 A303 RMK A01 T10151051  RH  077%=      5-min Rain = 0
KFR1 090451Z 35001KT M02/M05 A303 RMK A01 T10151051  RH  077%=      5-min Rain = 0
KFR1 090452Z 03001KT M02/M05 A303 RMK A01 T10161052  RH  077%=      5-min Rain = 0
KFR1 090453Z 03001KT M02/M05 A303 RMK A01 T10161052  RH  077%=      5-min Rain = 0
KFR1 090454Z 04001KT M02/M05 A3031 RMK A01 T10171052  RH  077%=      5-min Rain = 0
KFR1 090455Z 03001KT M02/M05 A3031 RMK A01 T10171052  RH  077%=      5-min Rain = 0
KFR1 090456Z 03001KT M02/M05 A3031 RMK A01 T10171053  RH  077%=      5-min Rain = 0
KFR1 090457Z 03001KT M02/M05 A3031 RMK A01 T10171053  RH  077%=      5-min Rain = 0
KFR1 090458Z 01001KT M02/M05 A3031 RMK A01 T10171053  RH  077%=      5-min Rain = 0
KFR1 090459Z 01002KT M02/M05 A3031 RMK A01 T10181053  RH  077%=      5-min Rain = 0
KFR1 090500Z 01002KT M02/M05 A3031 RMK A01 T10171053  RH  077%=      5-min Rain = 0
KFR1 090501Z 01002KT M02/M05 A3031 RMK A01 T10171052  RH  077%=      5-min Rain = 0
KFR1 090502Z 00002KT M02/M05 A3031 RMK A01 T10171052  RH  077%=      5-min Rain = 0
KFR1 090503Z 35002KT M02/M05 A3031 RMK A01 T10171052  RH  077%=      5-min Rain = 0
KFR1 090504Z 35002KT M02/M05 A3031 RMK A01 T10171052  RH  077%=      5-min Rain = 0
KFR1 090505Z 01002KT M02/M05 A3031 RMK A01 T10171052  RH  077%=      5-min Rain = 0
KFR1 090506Z 01002KT M02/M05 A3031 RMK A01 T10171052  RH  077%=      5-min Rain = 0
KFR1 090507Z 00001KT M02/M05 A3031 RMK A01 T10171052  RH  077%=      5-min Rain = 0
KFR1 090508Z 36002KT M02/M05 A3031 RMK A01 T10181052  RH  077%=      5-min Rain = 0
KFR1 090509Z 34001KT M02/M05 A3031 RMK A01 T10181052  RH  077%=      5-min Rain = 0
KFR1 090510Z 34001KT M02/M05 A3031 RMK A01 T10191053  RH  077%=      5-min Rain = 0
KFR1 090511Z 35001KT M02/M05 A3031 RMK A01 T10191053  RH  077%=      5-min Rain = 0
KFR1 090512Z 35001KT M02/M05 A3031 RMK A01 T10191053  RH  078%=      5-min Rain = 0
KFR1 090513Z 35001KT M02/M05 A3031 RMK A01 T10191053  RH  078%=      5-min Rain = 0
KFR1 090514Z 35002KT M02/M05 A3031 RMK A01 T10191052  RH  078%=      5-min Rain = 0
KFR1 090515Z 35002KT M02/M05 A3031 RMK A01 T10191052  RH  078%=      5-min Rain = 0
KFR1 090516Z 36002KT M02/M05 A3031 RMK A01 T10191052  RH  078%=      5-min Rain = 0
KFR1 090517Z 01002KT M02/M05 A3031 RMK A01 T10191052  RH  078%=      5-min Rain = 0
KFR1 090518Z 01002KT M02/M05 A3031 RMK A01 T10181052  RH  078%=      5-min Rain = 0
KFR1 090519Z 00002KT M02/M05 A3031 RMK A01 T10191053  RH  078%=      5-min Rain = 0
KFR1 090520Z 01002KT M02/M05 A3031 RMK A01 T10181052  RH  077%=      5-min Rain = 0
KFR1 090521Z 00002KT M02/M05 A3031 RMK A01 T10181053  RH  077%=      5-min Rain = 0
KFR1 090522Z 35001KT M02/M05 A3032 RMK A01 T10191053  RH  077%=      5-min Rain = 0
KFR1 090523Z 34002KT M02/M05 A3032 RMK A01 T10191054  RH  077%=      5-min Rain = 0
KFR1 090524Z 33002KT M02/M06 A3032 RMK A01 T10201055  RH  077%=      5-min Rain = 0
KFR1 090525Z 32002KT M02/M05 A3032 RMK A01 T10201054  RH  077%=      5-min Rain = 0
KFR1 090526Z 32003KT M02/M05 A3032 RMK A01 T10201054  RH  077%=      5-min Rain = 0
KFR1 090527Z 33003KT M02/M05 A3032 RMK A01 T10201054  RH  078%=      5-min Rain = 0
KFR1 090528Z 34003KT M02/M05 A3032 RMK A01 T10201054  RH  078%=      5-min Rain = 0
KFR1 090529Z 35003KT M02/M05 A3032 RMK A01 T10201054  RH  077%=      5-min Rain = 0
KFR1 090530Z 35003KT M02/M05 A3032 RMK A01 T10201054  RH  077%=      5-min Rain = 0
KFR1 090531Z 35003KT M02/M06 A3032 RMK A01 T10201055  RH  077%=      5-min Rain = 0
KFR1 090532Z 34003KT M02/M06 A3032 RMK A01 T10201055  RH  077%=      5-min Rain = 0
KFR1 090533Z 35003KT M02/M06 A3032 RMK A01 T10201055  RH  077%=      5-min Rain = 0
KFR1 090534Z 02002KT M02/M06 A3032 RMK A01 T10201055  RH  077%=      5-min Rain = 0
KFR1 090535Z 01002KT M02/M06 A3032 RMK A01 T10201055  RH  077%=      5-min Rain = 0
KFR1 090536Z 01003KT M02/M06 A3032 RMK A01 T10211055  RH  077%=      5-min Rain = 0
KFR1 090537Z 02003KT M02/M06 A3032 RMK A01 T10221056  RH  078%=      5-min Rain = 0
KFR1 090538Z 02002KT M02/M06 A3032 RMK A01 T10231057  RH  078%=      5-min Rain = 0
KFR1 090539Z 02003KT M02/M06 A3031 RMK A01 T10241057  RH  078%=      5-min Rain = 0
KFR1 090540Z 03003KT M03/M06 A3031 RMK A01 T10251057  RH  079%=      5-min Rain = 0
KFR1 090541Z 03003KT M03/M06 A3031 RMK A01 T10271057  RH  080%=      5-min Rain = 0
KFR1 090542Z 04003KT M03/M06 A3031 RMK A01 T10281057  RH  080%=      5-min Rain = 0
KFR1 090543Z 04003KT M03/M06 A3031 RMK A01 T10281056  RH  081%=      5-min Rain = 0
KFR1 090544Z 04003KT M03/M06 A3031 RMK A01 T10281056  RH  081%=      5-min Rain = 0
KFR1 090545Z 03003KT M03/M06 A3031 RMK A01 T10291057  RH  081%=      5-min Rain = 0
KFR1 090546Z 03003KT M03/M06 A3031 RMK A01 T10301058  RH  081%=      5-min Rain = 0
KFR1 090547Z 02003KT M03/M06 A3031 RMK A01 T10301057  RH  081%=      5-min Rain = 0
KFR1 090548Z 02003KT M03/M06 A3031 RMK A01 T10301057  RH  082%=      5-min Rain = 0
KFR1 090549Z 02002KT M03/M06 A3031 RMK A01 T10311057  RH  082%=      5-min Rain = 0
KFR1 090550Z 02002KT M03/M06 A3031 RMK A01 T10311058  RH  082%=      5-min Rain = 0
KFR1 090551Z 02002KT M03/M06 A3031 RMK A01 T10311057  RH  082%=      5-min Rain = 0
KFR1 090552Z 02002KT M03/M06 A3031 RMK A01 T10311057  RH  082%=      5-min Rain = 0
KFR1 090553Z 01002KT M03/M06 A3031 RMK A01 T10321057  RH  082%=      5-min Rain = 0
KFR1 090554Z 01001KT M03/M06 A3031 RMK A01 T10321058  RH  082%=      5-min Rain = 0
KFR1 090555Z 36001KT M03/M06 A3031 RMK A01 T10321057  RH  083%=      5-min Rain = 0
KFR1 090556Z 35000KT M03/M06 A3031 RMK A01 T10321058  RH  083%=      5-min Rain = 0
KFR1 090557Z 00000KT M03/M06 A3031 RMK A01 T10321058  RH  082%=      5-min Rain = 0
KFR1 090558Z 00000KT M03/M06 A3031 RMK A01 T10321058  RH  082%=      5-min Rain = 0
KFR1 090559Z 01001KT M03/M06 A3031 RMK A01 T10321059  RH  082%=      5-min Rain = 0

Page generated in 0.1335 seconds.